ECMWFNIL_250_spd_000.txt.gz
Wind_Speed
51 53 52 51 53 54 52 50 49 48 47 44 42 41 42 42 43 43 42 41 41 40 38 36 34 34 34 34 34 33 33 33 33 32 32 32 31 31 32 33 34 37
51 51 51 51 52 53 53 51 48 46 44 43 42 43 42 42 42 43 44 44 44 43 42 41 39 37 37 37 37 36 36 36 36 35 34 33 33 33 33 33 34 35
52 50 50 49 49 51 52 50 47 47 47 47 47 47 45 44 43 42 44 45 46 46 46 45 44 42 41 40 40 39 39 39 38 38 37 36 36 35 35 34 34 35
52 51 50 49 48 48 49 49 48 48 50 51 53 53 51 48 46 43 43 44 46 46 47 47 47 46 46 44 43 43 42 42 42 41 40 40 39 38 37 36 36 36
54 53 52 52 52 51 50 50 49 49 51 54 57 58 57 54 52 48 45 44 45 46 47 48 49 49 49 48 48 47 46 45 45 44 43 43 42 41 40 39 38 37
55 54 51 53 57 59 58 56 53 53 55 59 60 59 59 58 56 54 50 47 46 47 47 48 49 51 51 51 51 50 50 49 49 48 47 46 45 44 43 41 40 39
56 56 56 57 59 62 62 63 64 65 65 65 62 59 58 58 58 58 56 53 51 51 51 50 51 51 52 53 53 53 53 53 52 52 51 50 48 47 46 45 43 43
59 61 63 64 65 65 65 66 70 72 70 67 63 61 57 55 57 59 59 57 56 56 55 54 53 53 54 54 54 54 55 55 55 54 54 53 51 50 49 48 47 46
62 64 65 66 67 67 67 68 71 72 69 65 61 58 54 49 50 54 57 57 57 58 58 58 57 57 57 57 56 56 56 56 56 56 56 55 54 53 52 52 51 50
65 65 65 65 66 65 64 65 66 65 62 58 56 54 52 50 50 53 56 56 56 57 59 59 59 59 60 61 61 60 59 59 58 58 57 57 56 55 55 54 54 54
67 66 66 65 65 64 61 58 58 57 55 54 53 54 56 56 56 56 58 58 56 55 57 58 58 60 62 63 64 64 63 62 61 60 59 58 57 57 57 56 56 56
67 67 66 65 64 63 59 54 52 50 50 53 54 53 56 59 60 60 60 58 57 56 57 58 58 60 61 62 63 63 63 63 62 61 60 59 59 58 58 58 58 58
63 63 62 61 61 61 58 55 53 49 47 50 51 50 54 57 59 61 58 56 57 57 57 58 59 61 61 62 62 62 62 63 63 62 61 60 59 59 60 60 60 60
60 59 59 59 58 59 56 53 53 51 48 49 50 51 53 53 57 60 58 55 57 56 55 56 58 60 62 62 63 63 62 62 62 62 62 61 60 59 59 60 61 62
57 56 56 56 55 56 56 53 51 51 52 53 53 54 54 52 55 59 58 56 55 52 49 50 52 55 58 60 63 65 66 65 63 63 63 62 61 60 61 62 63 64
56 54 54 55 52 52 56 56 53 53 56 58 59 59 58 55 53 53 53 54 54 51 49 49 50 52 54 56 59 62 64 66 66 65 64 64 64 63 63 64 65 67
57 55 55 56 54 51 53 54 55 57 57 58 60 62 62 58 56 55 54 54 55 55 55 53 53 55 56 57 58 59 61 63 64 65 64 64 65 65 64 65 67 69
57 56 56 56 54 53 54 54 56 58 59 59 59 61 62 62 61 61 60 59 59 59 59 57 56 57 58 59 60 61 61 61 62 63 63 63 64 64 64 66 68 70
58 58 58 57 56 55 56 56 57 59 61 62 62 62 63 63 62 62 62 62 61 61 60 60 60 60 60 61 62 63 63 63 63 64 63 63 62 62 64 66 68 68
57 58 58 58 57 57 57 57 58 60 61 62 62 62 62 62 62 62 62 63 63 63 63 63 63 63 63 63 63 65 65 65 65 65 65 65 64 63 65 67 69 69
56 58 58 59 59 59 59 59 59 60 61 61 62 62 62 62 63 63 64 64 65 66 66 66 66 66 66 66 66 67 67 67 68 68 68 68 67 67 68 70 72 72
56 58 59 60 61 61 61 61 61 61 61 61 61 62 63 64 64 65 66 67 68 69 69 69 69 69 69 69 70 70 70 70 71 71 71 71 71 71 72 73 74 74
59 60 61 62 62 63 63 62 62 62 61 62 63 64 65 65 65 66 67 68 69 70 71 71 72 72 71 71 72 73 73 73 73 74 74 74 74 75 75 76 76 77
61 62 62 63 63 64 64 64 64 64 65 66 66 67 67 67 68 69 69 70 70 70 71 72 73 73 73 73 73 74 75 75 75 76 76 77 77 77 78 78 78 78
62 64 64 65 65 65 66 66 68 69 69 69 69 69 69 69 70 70 71 71 71 72 72 72 73 73 73 73 74 75 75 76 76 77 77 77 78 78 79 79 80 80
64 66 66 67 68 69 69 70 71 72 72 72 72 71 71 71 72 72 72 72 73 73 73 73 73 73 73 73 74 75 75 76 76 77 77 78 78 79 79 80 81 81

ECMWFNIL_250_spd_003.txt.gz
Wind_Speed
56 55 57 59 56 52 50 50 50 51 50 49 48 47 46 46 46 45 43 41 38 36 35 35 35 36 37 38 38 37 36 35 34 34 34 34 33 32 31 29 29 29
59 58 58 60 59 56 53 51 52 52 52 51 49 48 47 47 47 45 43 41 39 38 39 40 39 39 38 39 39 39 39 38 37 37 36 37 37 36 35 33 32 31
60 59 59 61 63 62 59 56 55 54 53 51 49 49 47 46 45 42 40 41 41 40 39 41 43 44 42 41 40 41 41 41 40 39 39 39 39 38 38 37 36 34
61 63 64 66 66 65 63 60 59 57 55 53 51 50 48 46 44 42 43 44 44 42 40 42 45 47 46 45 43 42 42 42 42 42 42 41 41 41 40 40 39 38
64 65 66 68 67 66 63 60 59 58 57 55 54 53 51 49 48 49 50 50 50 49 49 51 53 52 50 49 48 46 44 43 43 44 44 44 43 43 43 42 41 41
66 64 63 64 64 64 63 61 58 57 56 56 56 55 54 53 53 54 55 55 55 56 58 60 61 59 55 52 51 51 49 46 44 45 45 45 46 46 45 45 45 44
63 61 59 58 57 58 60 60 58 56 55 55 55 56 57 57 58 59 59 59 60 61 63 64 64 63 59 55 53 53 53 50 47 46 46 46 46 47 48 47 47 47
59 57 56 56 56 57 59 59 59 59 57 56 56 57 59 60 61 63 64 64 64 64 65 65 65 64 61 57 55 54 55 55 52 50 49 48 48 48 49 50 49 49
59 56 56 58 60 62 63 63 64 65 63 61 59 59 59 61 64 66 67 66 65 65 64 64 63 61 59 57 55 54 54 56 56 55 54 53 52 50 50 51 51 51
58 57 58 61 64 65 66 67 68 68 67 64 62 61 62 65 67 68 67 67 66 65 64 62 61 59 57 56 55 53 52 54 55 55 55 56 56 55 53 52 52 52
58 59 61 64 65 65 65 66 66 66 65 64 64 66 69 71 72 71 69 68 67 64 62 61 59 58 57 56 55 53 52 52 53 54 55 56 57 58 57 55 54 54
59 61 63 65 67 68 67 66 66 67 68 68 69 71 73 73 74 73 70 69 67 63 61 61 61 59 58 58 56 55 54 54 55 56 56 56 58 59 59 58 57 57
58 59 60 61 65 68 68 68 69 70 70 70 71 71 70 70 69 68 66 64 64 65 63 62 61 59 57 58 57 56 55 54 54 55 55 55 56 57 58 59 58 58
58 57 56 56 59 65 68 69 70 70 69 68 66 63 62 63 61 61 61 58 59 66 67 62 59 56 54 53 53 53 52 52 52 53 54 54 54 55 56 58 58 58
59 59 58 56 58 61 64 66 68 68 67 65 62 59 59 61 60 61 63 62 62 68 68 63 58 54 51 49 48 49 50 51 52 52 51 52 52 54 56 57 58 58
60 61 61 60 61 62 63 65 65 65 64 63 61 59 58 60 61 62 65 66 65 65 63 60 58 56 55 53 50 49 49 50 51 51 50 50 50 51 54 56 59 60
61 62 63 63 65 66 68 68 65 62 61 60 58 58 59 60 61 62 63 64 63 61 58 57 57 58 59 58 56 53 51 51 52 53 54 55 54 53 53 54 56 59
61 62 64 64 64 66 67 67 64 61 60 59 58 58 58 59 60 60 61 63 63 61 58 58 59 59 60 60 60 58 56 57 58 59 60 61 61 60 58 57 57 57
62 63 64 65 65 65 66 67 66 64 63 63 62 61 59 59 59 60 61 63 63 62 60 61 62 63 62 62 62 61 60 61 63 64 63 63 64 65 64 63 62 60
63 64 64 65 66 67 67 67 68 67 66 65 65 65 64 63 63 62 61 63 63 63 63 63 64 65 65 64 64 64 65 66 66 66 65 64 64 66 67 68 68 66
64 65 64 65 67 68 68 68 68 68 67 67 67 67 67 66 66 65 63 63 64 65 65 66 67 67 68 68 68 69 69 69 68 67 66 66 66 67 68 69 70 71
64 65 65 65 67 69 69 69 68 68 68 69 69 69 69 68 68 68 68 68 68 69 69 70 70 71 72 72 72 72 72 70 69 68 68 68 69 69 70 70 71 73
63 63 64 65 66 68 69 69 68 68 68 69 70 70 70 70 70 70 71 71 72 72 72 72 73 73 74 74 74 73 73 72 71 71 71 71 72 72 73 73 74 75
60 61 62 64 65 66 68 69 69 68 68 69 69 70 70 70 70 71 71 72 72 72 72 73 74 74 74 75 75 75 74 74 74 74 74 74 74 75 75 76 76 77
58 59 60 62 64 66 67 69 69 69 69 69 68 68 68 69 69 70 71 71 72 72 73 74 74 75 75 76 76 76 76 76 76 77 77 77 77 77 77 77 78 78
58 58 59 61 63 65 66 68 68 69 68 68 67 67 67 68 69 70 71 72 73 74 75 75 76 76 76 76 77 77 78 78 79 79 79 79 79 79 79 79 79 79

ECMWFNIL_250_spd_006.txt.gz
Wind_Speed
52 51 51 52 53 55 55 55 54 54 54 53 53 52 52 52 52 52 50 49 47 46 45 45 44 43 42 40 37 35 35 35 32 30 30 32 34 35 35 34 33 32
50 52 53 55 58 60 61 62 62 61 60 58 56 55 54 54 53 52 50 48 47 46 45 45 45 44 42 39 36 35 36 36 32 29 30 34 37 38 39 39 38 36
47 50 51 52 57 60 61 62 63 63 62 60 59 58 57 56 55 53 52 50 49 48 46 46 45 44 42 39 36 35 36 36 36 36 38 41 41 41 42 42 42 40
46 47 49 48 50 55 57 57 57 59 59 59 59 58 58 58 57 56 55 53 52 51 49 48 46 45 43 42 41 40 40 40 42 44 45 45 44 44 44 44 44 43
46 46 48 47 47 51 55 55 56 58 60 60 60 59 58 58 57 57 56 54 53 52 51 49 47 46 45 44 45 45 46 46 46 47 47 47 46 46 46 46 46 45
51 52 53 52 52 53 55 56 57 60 63 64 63 62 61 60 58 56 55 54 54 52 51 50 49 47 47 47 47 48 49 49 48 48 48 48 48 48 48 47 47 48
53 55 56 56 56 57 58 60 60 62 63 64 64 63 62 61 59 57 56 55 54 54 53 52 51 50 49 50 50 50 50 50 50 50 50 50 50 51 50 48 47 48
54 57 58 57 58 60 62 63 64 64 64 63 62 61 61 60 59 58 56 56 56 55 55 54 54 53 53 53 53 53 53 52 52 52 53 54 54 52 50 47 46 47
58 60 62 62 62 64 65 64 64 65 64 63 61 59 58 57 57 57 57 56 57 57 57 57 57 57 56 56 56 56 56 55 56 57 57 57 55 52 49 47 46 45
61 63 64 64 64 66 67 67 65 63 62 61 60 58 56 55 56 58 58 58 58 58 59 60 60 59 59 59 59 59 59 59 60 60 60 58 55 51 49 48 47 45
62 64 64 63 63 65 66 66 65 63 61 61 60 58 57 56 57 58 58 57 58 59 60 61 61 62 63 63 62 62 62 63 63 62 60 57 54 52 50 49 49 48
63 64 64 63 64 65 65 63 62 60 59 60 61 60 58 58 58 59 59 58 59 61 63 65 66 67 68 68 67 65 64 63 62 59 56 54 52 51 51 51 51 51
63 64 64 64 64 65 65 64 64 63 63 64 65 65 63 63 63 63 64 65 66 68 71 72 73 75 75 73 70 65 62 59 56 54 51 50 50 51 51 52 51 51
63 63 62 62 63 63 64 65 66 66 67 69 70 69 69 68 67 67 68 69 70 71 73 76 78 78 78 76 70 62 57 55 54 52 50 49 50 50 50 49 48 47
62 62 61 61 59 58 60 63 64 64 66 69 71 71 71 70 70 69 67 68 68 68 69 72 76 76 75 74 70 61 53 50 50 49 49 49 50 49 48 46 46 46
61 61 61 60 58 56 57 60 61 62 65 68 69 70 70 69 68 67 65 65 65 64 65 67 68 70 70 70 68 60 50 45 45 46 47 48 49 49 48 48 48 49
60 59 59 59 59 59 59 60 62 64 66 66 67 68 68 67 66 64 63 63 63 63 64 64 64 66 69 69 66 61 54 48 47 47 47 48 50 50 50 50 50 50
59 58 58 58 58 59 59 59 61 65 66 66 66 65 64 64 64 63 61 61 62 64 65 66 65 66 68 69 67 64 60 56 53 51 50 51 52 53 53 52 52 52
60 58 58 58 59 59 60 60 61 63 65 66 65 64 62 62 63 62 62 62 63 65 66 67 66 66 67 68 68 67 65 62 59 57 55 54 54 55 55 55 55 54
61 60 59 59 60 60 61 63 64 64 66 67 66 63 62 61 61 62 63 64 66 67 67 67 67 68 68 69 69 69 68 66 64 61 60 58 57 57 58 58 58 57
62 62 61 61 62 62 62 65 67 67 69 70 67 65 64 63 62 63 64 65 67 68 69 69 70 70 70 70 70 70 70 70 68 67 65 63 62 61 61 61 60 60
63 64 64 64 64 64 64 66 68 69 71 71 69 67 66 66 66 66 66 66 68 69 70 71 72 73 73 73 73 73 73 73 73 72 70 68 66 65 64 63 63 64
63 64 65 66 66 66 67 67 68 69 71 71 70 69 69 69 69 69 69 69 69 70 71 73 74 75 75 75 75 75 76 76 76 75 73 71 69 68 67 67 67 67
60 62 63 65 66 67 68 69 69 70 71 71 71 71 71 71 71 71 71 72 72 73 73 74 75 75 75 76 76 76 76 76 76 76 74 73 72 71 70 70 70 71
58 59 61 62 64 66 67 68 69 70 71 71 72 73 73 73 73 73 73 73 74 75 75 75 76 76 75 75 75 76 76 75 75 75 74 74 73 73 72 72 72 73
59 60 61 62 63 65 66 67 68 69 70 70 71 72 73 72 73 73 74 75 76 76 76 76 76 76 76 76 75 75 74 74 74 74 74 74 74 74 74 74 74 75

ECMWFNIL_250_spd_009.txt.gz
Wind_Speed
45 48 52 54 56 58 59 60 62 62 62 61 61 60 59 58 56 54 53 53 53 52 51 50 50 50 48 44 41 40 39 39 39 38 38 37 36 35 34 32 29 25
46 49 52 54 55 56 57 59 61 63 63 63 62 61 59 57 56 55 54 54 52 51 51 51 51 50 47 44 42 41 41 40 40 40 39 38 37 36 36 35 34 33
47 50 53 55 56 55 55 57 59 60 61 61 61 60 58 57 56 55 54 53 52 52 53 53 51 48 45 44 42 41 41 41 42 42 41 40 38 37 36 36 37 38
48 51 53 54 54 54 53 55 57 57 57 58 60 60 59 58 58 57 56 55 55 56 54 51 48 46 45 44 43 42 42 42 42 42 42 41 40 40 40 40 40 40
50 53 54 52 52 52 52 54 55 56 57 58 60 62 61 60 59 58 58 56 54 53 51 49 47 47 46 46 45 45 44 44 43 43 43 43 43 43 43 43 42 41
53 54 54 53 53 52 52 54 55 56 57 58 59 60 60 59 59 59 58 55 52 50 49 49 49 49 49 48 47 47 46 46 46 45 45 45 45 44 44 43 42 41
53 53 53 54 55 54 53 55 56 57 57 57 58 57 57 57 57 58 58 57 56 54 52 52 52 52 51 50 49 49 49 49 48 48 48 47 46 45 44 44 43 42
53 53 53 53 55 56 55 55 55 56 57 58 58 57 58 59 59 59 59 58 58 57 55 54 53 53 51 50 50 50 50 50 50 49 48 47 46 45 45 44 44 43
55 55 55 55 56 57 57 57 57 57 58 58 57 55 55 56 57 57 56 54 53 53 52 49 49 49 48 49 50 51 52 51 51 50 49 47 46 45 45 44 45 45
57 57 57 58 58 58 58 59 59 59 59 59 58 56 54 54 55 56 55 54 53 52 51 50 48 48 48 50 52 54 55 55 54 53 52 50 49 48 47 48 49 49
58 58 60 60 61 60 60 60 60 60 60 60 60 60 60 61 61 62 62 61 60 58 57 55 54 54 55 55 57 58 58 58 57 56 55 54 53 52 53 54 54 53
61 61 62 63 63 62 62 62 61 60 60 60 60 62 63 64 64 65 65 64 63 61 59 58 57 58 59 59 60 61 61 61 60 59 57 56 56 56 57 56 54 53
63 63 63 63 63 62 62 62 62 61 61 61 61 63 64 65 65 66 66 65 63 61 60 59 59 60 61 62 64 65 64 65 64 62 59 56 57 57 56 53 51 49
65 65 64 64 63 62 62 61 61 61 61 61 62 63 64 65 66 66 67 66 65 64 63 63 63 64 66 67 68 69 68 66 65 62 56 53 53 53 50 48 47 46
65 65 65 65 64 64 63 61 60 60 60 61 61 62 63 63 63 64 66 67 66 65 64 64 64 66 67 67 67 68 68 65 63 60 55 50 47 47 46 45 45 44
66 66 66 65 65 65 64 61 59 58 59 59 60 61 62 63 63 64 65 65 64 63 62 61 61 62 63 63 63 65 65 64 62 60 57 52 48 44 43 43 43 43
67 67 67 66 66 65 63 61 59 57 57 57 56 56 59 59 60 62 63 63 62 61 60 59 59 60 60 59 60 61 61 61 60 60 60 58 55 49 44 42 43 45
69 68 68 67 66 66 64 62 60 58 58 56 53 53 55 56 55 56 58 60 60 61 62 61 60 59 58 57 57 58 58 59 59 59 59 61 61 58 52 46 45 46
70 70 69 68 67 67 66 64 62 61 62 61 59 59 60 60 60 59 59 60 60 60 61 62 60 58 56 56 56 56 57 57 58 59 60 61 63 64 62 57 51 49
71 71 70 69 68 67 67 66 65 64 64 64 64 66 67 66 66 66 66 65 64 63 63 62 62 60 58 57 56 56 57 57 58 59 60 61 63 64 66 65 62 57
72 72 71 71 70 69 68 67 66 66 66 65 65 67 69 69 69 70 70 69 68 68 67 66 64 63 61 59 58 58 58 59 59 60 61 62 63 64 65 67 68 66
70 71 71 71 71 70 69 69 68 68 68 66 65 66 68 70 71 72 72 72 71 70 69 68 67 66 64 61 60 60 60 60 61 62 63 64 64 65 66 67 68 70
67 68 69 70 71 71 70 70 71 70 68 66 64 66 68 70 72 74 74 74 73 72 70 70 70 68 66 64 64 63 63 63 63 64 64 66 67 68 69 70 71 72
63 64 66 67 68 69 70 70 71 71 69 67 66 67 68 70 74 77 76 73 72 72 72 72 72 71 69 68 67 67 66 66 66 67 67 68 69 70 71 72 73 73
61 61 63 64 65 66 67 68 69 69 69 68 68 69 70 72 76 79 78 73 72 74 74 73 73 73 73 72 71 70 69 69 70 70 70 71 72 72 73 73 73 74
60 61 62 62 63 64 65 66 67 68 68 67 68 69 71 73 75 77 77 75 74 75 76 74 75 76 75 74 74 72 72 72 72 72 72 73 73 74 74 74 74 74

ECMWFNIL_250_spd_012.txt.gz
Wind_Speed
49 50 51 52 53 54 53 53 52 50 49 48 47 46 47 47 47 47 48 48 47 47 47 48 48 48 47 46 45 45 44 44 44 45 46 43 39 36 34 33 34 34
50 50 51 53 54 55 56 55 53 50 49 48 47 47 47 48 48 47 47 47 46 46 46 46 45 45 45 45 45 44 45 45 46 47 46 42 38 37 36 35 35 35
48 47 48 49 50 51 52 52 50 48 47 47 48 47 47 47 47 47 46 46 45 45 45 45 45 45 46 46 46 47 47 48 48 47 44 40 39 38 37 36 36 37
48 47 45 46 47 47 48 49 49 48 48 48 47 48 47 47 46 46 45 45 45 45 46 46 46 46 46 46 47 47 48 47 46 45 43 41 40 39 38 37 37 38
51 50 47 47 48 48 49 50 51 51 51 50 49 49 49 48 47 47 46 46 46 46 47 47 47 46 46 47 47 47 47 47 46 45 44 43 42 40 39 38 38 39
55 54 53 52 53 54 54 54 53 52 50 50 51 51 51 50 50 49 49 49 49 48 49 49 49 49 48 48 48 48 48 47 47 46 45 44 43 41 39 38 39 40
61 61 60 60 60 59 58 57 55 52 50 51 52 53 53 53 53 52 52 53 53 52 52 53 53 52 52 51 50 49 49 48 47 46 45 43 41 39 38 37 38 40
62 63 64 64 63 61 60 58 57 54 52 53 55 55 55 55 55 55 54 54 55 55 56 56 56 56 55 53 51 50 49 48 47 46 44 42 40 38 37 36 36 37
61 62 63 63 62 62 60 58 57 56 54 55 57 58 58 58 57 57 56 56 56 57 58 57 56 55 53 51 48 46 45 44 45 45 45 43 42 41 41 41 39 36
64 64 64 64 64 62 60 58 56 56 56 57 58 58 58 58 58 57 57 56 56 56 55 54 52 49 47 46 44 44 44 45 46 47 47 48 47 46 47 47 45 42
67 66 65 64 64 63 61 59 57 57 57 58 58 58 58 58 58 57 57 56 56 55 54 53 52 50 49 49 48 49 52 53 53 52 52 53 53 51 50 50 48 47
66 65 65 64 64 63 61 60 59 58 58 58 58 58 58 58 59 58 58 57 57 57 57 57 58 57 57 58 57 58 59 58 57 56 56 56 55 53 52 51 50 50
63 63 64 64 63 62 61 60 60 59 59 59 59 60 60 61 61 61 60 59 59 59 59 59 61 61 61 62 62 62 62 61 60 59 59 58 57 55 53 52 52 53
61 61 62 62 61 61 60 60 61 61 61 61 61 61 62 63 63 63 62 61 61 61 60 60 61 62 62 62 63 64 64 64 63 62 61 60 58 56 55 53 52 52
61 62 62 62 62 61 61 62 62 63 63 63 63 63 63 64 64 64 63 63 63 63 62 61 62 62 63 63 63 64 65 65 63 62 61 60 58 56 54 52 50 49
63 63 63 63 63 63 62 63 64 65 65 65 65 64 64 64 65 64 64 64 64 64 64 63 63 63 63 63 63 64 65 64 63 62 60 59 57 55 53 51 49 49
65 65 65 65 65 65 64 63 64 66 67 67 67 66 65 65 65 65 65 64 64 64 64 64 64 64 64 63 64 64 64 64 62 60 59 59 59 57 56 54 52 50
67 68 68 68 67 67 66 65 66 66 67 67 68 67 66 65 65 65 64 63 62 62 63 64 64 65 64 63 63 63 63 62 62 61 59 59 59 59 57 55 53 52
70 70 71 71 70 70 69 68 69 69 69 69 69 69 67 66 66 66 64 63 62 63 63 63 62 62 61 62 62 62 62 63 63 62 61 59 59 58 57 56 55 54
72 72 73 73 74 73 73 72 72 71 71 70 69 69 68 67 67 67 65 63 64 65 65 64 63 62 61 60 60 59 59 59 59 60 61 60 59 59 58 57 56 56
75 75 75 76 76 76 76 75 75 74 73 72 70 69 68 68 68 67 66 64 64 65 66 66 66 65 63 62 62 62 62 61 61 61 62 63 62 60 60 59 58 57
77 77 77 77 77 77 77 77 77 77 76 75 73 71 70 69 69 69 68 66 65 65 65 66 67 67 67 67 68 69 70 69 68 66 66 66 65 64 62 61 61 60
76 76 76 77 77 77 77 77 77 78 78 77 76 74 73 72 71 70 70 69 67 66 63 63 64 66 68 70 72 74 75 74 72 70 68 67 66 65 64 63 63 63
70 71 71 71 71 71 72 73 74 75 76 75 75 75 74 73 72 71 71 70 69 67 64 62 63 64 64 66 71 75 76 75 73 71 69 69 68 66 66 66 66 66
65 65 65 65 65 66 67 68 69 70 71 72 72 73 72 73 72 71 71 71 70 70 70 68 69 69 67 68 74 79 79 75 72 71 69 68 68 69 69 71 71 70
63 63 63 63 63 64 64 65 66 66 67 67 68 69 70 71 72 71 71 71 71 72 74 73 72 72 71 71 76 84 88 82 74 71 71 69 68 70 71 73 74 73

ECMWFNIL_250_spd_015.txt.gz
Wind_Speed
45 45 45 44 44 44 43 43 42 42 42 42 42 44 44 44 44 44 44 44 42 41 40 40 41 41 42 42 41 40 39 38 37 37 37 37 38 38 38 39 40 41
50 50 50 49 48 47 46 46 45 45 46 46 46 46 46 45 44 44 44 44 43 42 42 42 43 43 43 42 40 39 38 37 37 37 38 38 38 39 39 40 41 41
51 52 53 53 52 51 49 48 48 48 48 48 48 47 46 45 45 45 45 45 45 44 45 45 45 44 43 41 39 38 37 37 37 38 38 38 39 39 40 41 41 41
49 50 51 52 52 51 50 48 48 48 47 46 45 45 45 45 45 45 45 45 45 46 47 47 47 45 43 41 39 38 37 38 38 38 38 39 40 41 42 43 43 42
50 50 50 50 50 49 47 47 47 47 46 45 44 43 44 45 45 46 46 47 48 50 51 50 47 45 43 41 40 40 40 39 39 40 40 41 42 43 44 44 44 44
51 52 51 51 51 49 48 48 49 48 48 48 48 49 48 49 49 50 51 53 54 55 54 51 48 46 44 43 42 42 42 42 42 42 42 43 43 44 45 45 44 44
54 54 54 54 55 54 53 53 52 52 52 53 54 54 54 54 54 55 56 56 56 56 55 53 50 47 46 45 45 45 45 45 45 45 45 46 46 46 45 45 44 44
58 57 57 58 58 59 58 57 55 55 56 57 58 58 59 60 60 59 59 58 56 55 54 53 52 50 49 49 48 48 48 47 48 48 48 49 48 47 45 44 44 43
60 60 60 59 60 60 60 60 59 59 59 60 61 62 63 63 62 60 59 59 58 57 56 55 55 54 53 52 51 51 50 50 51 51 51 50 48 47 45 44 44 44
62 63 63 63 62 62 62 64 64 64 62 62 62 63 63 63 61 60 59 58 57 57 57 57 57 57 56 55 54 53 53 52 51 50 49 48 47 46 45 45 45 46
63 64 65 66 66 66 67 68 68 67 66 65 64 64 64 64 64 64 62 60 58 57 57 57 56 56 55 54 54 53 52 50 49 48 48 48 48 48 48 49 50 50
65 66 66 66 66 68 69 69 70 69 69 68 67 67 67 66 66 65 63 61 59 59 59 58 57 57 56 56 55 54 53 52 51 51 51 52 52 53 54 55 56 56
63 66 66 65 65 66 68 68 68 69 69 69 69 69 68 67 66 64 62 61 59 59 59 59 58 58 58 59 59 58 57 56 56 56 56 56 56 57 58 59 60 60
62 63 63 63 64 66 68 68 68 69 69 69 69 69 68 65 63 62 60 59 58 57 57 57 58 59 59 60 61 61 60 59 59 58 58 58 58 57 58 60 60 60
63 64 63 64 66 67 68 69 68 68 67 66 65 65 63 61 60 60 59 59 59 58 58 58 59 60 60 61 63 63 62 61 60 59 59 58 57 56 57 59 59 59
62 63 63 64 64 64 65 65 65 65 65 63 63 62 61 61 60 60 60 60 60 61 60 60 61 62 62 63 63 64 64 63 62 61 61 61 59 59 60 60 60 58
61 62 62 63 63 63 63 63 63 64 63 63 62 62 62 61 61 61 61 62 62 62 62 62 62 62 63 63 64 64 66 67 65 64 63 62 61 61 61 61 59 58
62 62 63 64 64 63 63 63 63 63 63 62 62 62 62 62 63 62 62 62 62 63 63 63 63 62 63 63 63 64 66 68 67 65 64 63 62 62 61 60 59 58
64 65 65 66 66 65 64 64 64 64 63 62 62 62 61 62 63 63 62 62 62 62 63 63 63 63 63 64 65 65 65 66 66 64 62 61 61 61 61 59 58 59
65 66 67 68 68 68 68 67 67 66 65 64 63 62 61 61 62 63 63 62 62 63 64 65 64 65 66 66 66 65 64 64 63 61 60 59 57 57 58 57 57 58
66 67 68 69 69 69 70 70 69 69 69 68 67 67 66 66 66 66 66 66 66 66 65 64 65 66 67 67 65 64 64 63 63 63 63 62 60 60 60 59 58 59
69 70 71 72 73 73 73 73 73 73 73 73 73 72 72 72 70 68 68 69 67 66 65 65 65 65 66 67 66 65 65 64 65 66 67 66 66 66 65 64 63 63
73 74 75 76 76 77 77 76 77 77 77 77 76 76 75 75 73 69 67 65 64 66 67 67 65 65 66 66 65 65 65 65 66 68 68 68 69 69 67 67 67 67
76 76 76 77 77 77 77 77 77 77 76 76 75 75 75 74 72 68 63 62 65 68 67 62 61 64 67 66 65 65 65 65 66 66 66 67 70 71 70 70 70 70
75 74 74 73 74 73 73 73 72 72 71 70 69 70 69 69 68 64 60 59 63 64 61 58 58 61 64 64 65 65 65 67 68 68 68 69 72 73 73 73 74 75
71 71 70 70 70 70 69 68 68 68 67 66 65 64 64 65 64 62 60 60 60 59 57 56 56 59 62 65 66 68 69 70 72 71 71 74 75 75 75 75 76 78

ECMWFNIL_250_spd_021.txt.gz
Wind_Speed
44 45 47 50 51 51 50 49 48 47 45 43 41 39 39 38 38 38 38 37 37 37 37 36 36 35 35 36 37 38 39 39 39 40 41 42 43 44 44 43 41 41
46 46 47 49 51 52 52 52 51 50 49 47 45 42 40 40 40 40 40 39 39 39 38 38 38 38 38 39 40 41 42 42 43 44 46 46 46 46 45 44 44 44
47 47 47 48 50 52 53 53 53 52 50 50 48 47 45 45 44 44 43 43 42 42 41 41 41 41 41 42 43 45 46 47 49 50 49 48 46 45 45 45 45 46
44 47 47 48 48 49 50 51 52 52 51 50 49 48 47 47 46 46 46 46 45 45 44 44 44 44 45 45 46 47 48 49 50 49 47 45 44 44 45 46 47 48
40 43 46 47 48 48 48 49 49 50 50 50 50 49 48 48 48 47 47 47 47 47 47 47 47 47 48 48 48 49 49 48 47 45 45 45 45 46 46 47 48 49
38 41 44 47 48 48 48 48 48 49 50 50 50 50 50 50 50 50 49 49 49 49 49 49 49 49 49 49 49 49 49 48 47 46 47 48 48 48 48 49 50 51
43 46 48 48 48 48 49 49 49 50 50 51 51 51 51 52 52 52 52 51 51 51 50 50 49 49 49 50 50 50 50 49 49 50 50 50 50 50 50 51 52 53
48 49 49 49 49 49 50 50 50 50 50 50 51 51 51 52 52 53 53 52 52 52 52 52 51 51 51 52 52 52 53 53 53 54 54 54 53 52 52 52 53 54
50 49 49 50 50 50 50 50 50 50 50 51 51 52 52 52 53 53 53 53 53 53 53 53 53 53 54 54 55 55 55 56 56 56 56 56 56 55 55 56 57 57
51 51 51 51 52 52 52 52 52 51 51 51 52 53 53 53 54 54 54 55 55 55 56 56 56 56 56 56 56 56 56 56 56 56 57 57 58 59 60 61 61 59
52 51 51 52 53 53 53 53 54 54 54 53 54 55 55 55 55 55 56 56 56 57 57 58 58 58 58 58 58 59 59 59 59 59 59 59 60 61 62 62 60 59
52 51 50 50 51 52 52 53 54 55 56 57 57 57 57 57 57 57 58 58 59 59 60 60 60 61 61 61 62 63 63 62 62 61 61 61 62 61 61 60 59 60
53 51 50 50 50 51 52 53 54 55 56 58 58 58 58 58 58 59 59 60 61 62 62 63 64 64 64 64 64 64 64 63 62 61 61 61 61 60 60 60 61 62
52 53 52 52 52 53 53 54 54 55 55 56 57 58 58 59 59 59 59 60 61 63 64 64 65 65 65 65 64 63 62 62 61 61 61 61 61 61 62 63 63 62
53 55 55 54 55 55 55 55 55 56 56 56 57 57 58 58 59 60 60 61 62 64 65 65 66 66 66 65 64 63 62 63 63 62 62 63 63 63 63 63 62 61
58 59 58 57 57 57 56 57 57 57 58 58 58 59 58 59 60 62 62 63 64 65 65 64 64 63 63 63 62 61 61 62 63 63 62 63 63 62 61 61 61 61
55 58 60 59 59 60 60 60 61 61 61 61 60 59 59 60 61 62 63 64 64 64 64 63 62 62 62 62 61 60 60 61 62 62 62 62 62 62 62 61 61 61
57 58 61 62 62 62 62 62 63 63 63 62 61 60 61 61 60 60 61 63 64 64 65 64 63 63 62 62 60 59 58 60 62 62 63 64 65 65 64 63 62 62
64 63 64 65 64 64 64 64 64 64 65 65 66 66 66 64 62 62 64 65 65 66 65 63 61 60 59 59 59 59 60 62 64 64 64 64 65 65 64 64 64 64
66 65 65 66 67 67 67 67 68 68 69 70 70 70 68 67 66 66 66 66 67 67 66 64 63 61 61 62 64 65 64 63 62 61 61 61 62 63 64 66 67 68
65 65 66 67 67 68 69 69 69 70 70 69 68 68 67 67 67 67 67 67 69 69 69 69 68 67 67 67 68 68 66 62 60 59 59 59 58 58 57 57 59 62
64 65 66 67 67 68 69 69 69 69 68 68 68 68 68 68 69 69 69 70 71 71 72 71 71 70 69 69 70 69 68 66 64 62 61 60 58 55 52 51 53 57
65 66 66 67 68 69 70 70 70 70 70 70 70 70 70 71 71 71 72 72 73 73 72 72 71 71 70 70 70 70 70 69 68 66 65 64 63 62 61 61 62 64
66 67 68 69 70 71 71 71 72 72 72 72 72 72 72 72 73 73 74 75 75 75 74 73 72 72 72 73 73 73 72 72 71 71 69 69 70 71 71 71 71 73
70 70 71 72 73 73 73 74 74 74 74 74 74 74 74 74 75 75 76 77 77 78 77 76 75 75 76 76 77 77 76 75 75 75 74 74 75 77 77 77 77 78
72 73 73 74 75 75 76 76 76 76 75 75 74 74 74 74 74 75 75 75 76 77 77 76 76 76 76 76 77 77 76 75 74 74 74 74 75 76 77 77 76 78

ECMWFNIL_250_spd_024.txt.gz
Wind_Speed
42 43 43 43 43 42 41 40 39 38 38 39 42 44 46 46 45 43 42 41 40 39 38 38 38 37 36 36 36 36 37 37 37 37 36 37 38 39 40 41 42 43
40 41 42 43 43 43 42 40 39 38 38 39 41 44 46 47 47 46 45 44 44 42 40 39 38 37 37 37 38 38 39 39 39 39 39 40 40 41 41 42 44 44
34 33 34 36 37 38 38 37 37 37 38 39 41 44 46 48 48 48 47 46 46 45 44 43 42 41 41 41 41 41 41 42 43 43 44 44 44 44 44 44 45 46
27 27 29 31 32 33 34 35 35 35 36 38 39 42 45 47 48 49 49 48 47 46 45 44 44 43 43 43 43 44 44 45 46 47 47 47 47 47 47 47 48 49
27 29 32 33 34 34 34 35 35 35 35 36 37 40 42 45 46 47 47 47 47 46 45 44 44 44 44 44 45 45 47 47 48 49 49 49 49 49 49 49 49 49
30 31 32 33 34 35 35 36 36 36 37 38 39 41 43 45 46 47 47 47 46 46 46 46 46 46 46 46 46 47 48 48 49 50 50 50 50 50 50 50 49 49
30 32 33 33 33 34 35 37 39 40 42 43 46 47 47 46 47 48 48 49 49 49 49 49 49 49 49 48 48 49 49 49 50 50 50 50 50 50 50 50 50 50
33 35 37 38 39 38 38 40 42 45 47 49 51 51 50 49 49 49 49 50 50 51 51 51 51 50 50 50 50 50 50 50 50 50 50 50 50 51 51 51 52 52
42 44 46 47 48 47 46 46 46 48 50 52 53 52 52 51 50 50 50 50 50 50 50 51 51 51 50 50 50 50 50 50 51 51 51 52 52 53 53 54 54 54
50 51 50 49 49 50 51 51 51 52 52 52 52 52 52 51 51 51 51 51 51 50 50 50 51 51 51 51 52 52 52 52 53 53 53 53 54 55 55 56 56 57
47 44 43 43 44 46 48 50 51 51 51 50 50 50 50 51 51 51 51 51 51 51 51 51 52 52 52 52 53 53 53 54 54 54 55 55 56 57 58 59 59 60
35 36 38 41 45 48 49 50 49 49 50 51 51 50 50 50 50 50 51 51 52 52 53 53 54 54 54 54 55 55 55 55 56 56 56 57 58 58 59 60 61 61
39 40 44 47 50 52 51 51 51 50 50 51 52 52 51 51 51 51 52 53 53 53 53 54 54 54 55 55 55 56 56 56 57 57 57 58 58 59 59 60 60 60
46 47 49 47 46 46 46 48 49 51 52 52 52 53 53 53 53 53 54 54 54 54 54 54 54 54 55 55 56 56 57 57 58 58 59 59 59 60 60 60 59 58
48 48 46 40 39 41 44 46 47 49 52 53 53 53 54 54 55 56 56 56 56 56 56 55 55 55 55 56 57 57 58 59 59 60 60 61 61 61 60 59 57 56
50 48 44 40 40 41 42 44 45 47 49 51 52 53 55 56 57 58 58 58 58 57 57 57 58 58 57 56 57 57 59 59 60 60 61 61 61 61 60 59 58 58
48 47 46 44 42 41 43 44 46 49 51 52 53 55 57 59 59 59 59 59 59 60 60 61 62 61 61 60 58 59 60 61 61 61 61 61 61 61 61 60 59 59
53 55 55 51 47 48 53 54 53 55 57 59 60 62 63 63 63 62 61 61 61 62 63 64 65 65 65 64 63 63 64 64 64 64 64 64 64 63 62 61 59 60
63 65 65 61 58 59 64 66 65 65 67 69 71 72 71 70 70 69 68 66 65 65 65 66 67 68 68 68 68 68 68 67 66 67 67 67 66 65 63 62 62 64
70 70 69 68 68 68 71 73 74 75 76 76 76 74 73 72 72 72 71 70 69 69 69 69 70 70 71 71 72 72 71 69 67 66 66 66 65 65 65 65 66 67
73 72 72 72 72 73 74 76 77 78 78 77 75 74 73 72 72 71 71 71 71 71 70 71 71 71 72 72 73 73 72 70 68 67 66 66 66 67 67 68 68 67
74 73 73 72 72 73 74 74 75 76 76 75 74 74 73 72 72 72 72 72 72 71 71 71 71 71 71 72 72 72 71 70 70 69 69 69 69 69 70 70 69 69
76 75 74 73 72 72 72 72 73 74 74 74 74 74 74 73 73 73 73 73 72 72 72 72 72 72 72 72 72 72 72 71 71 70 70 71 72 72 72 72 72 71
79 78 76 75 74 73 73 72 73 73 74 74 75 75 75 75 75 74 74 74 73 73 73 72 73 73 73 73 73 73 73 73 73 72 71 71 73 75 75 75 75 74
81 80 79 77 75 74 74 74 74 74 74 74 75 75 75 76 76 76 75 75 75 75 74 74 74 75 75 76 76 76 76 76 75 75 75 75 76 77 77 77 76 76
80 79 79 78 76 75 75 74 74 75 75 75 75 76 77 77 77 77 77 77 77 77 77 76 76 76 77 77 76 76 75 75 74 74 74 75 76 75 75 75 75 75

ECMWFNIL_250_spd_027.txt.gz
Wind_Speed
42 42 41 40 39 39 38 38 38 38 38 37 37 36 35 34 33 32 31 31 31 32 34 35 36 36 35 35 35 35 35 35 35 35 34 34 34 35 36 37 38 38
41 39 38 36 36 36 36 36 36 35 35 35 35 35 34 33 32 32 31 31 31 33 34 36 37 37 37 37 37 37 37 36 35 35 35 35 36 36 37 38 39 40
39 37 36 35 34 34 33 32 32 31 30 29 29 29 28 28 28 29 30 30 30 31 33 35 37 38 38 39 39 39 38 38 38 38 38 38 38 38 39 40 41 42
37 37 36 35 34 32 31 30 29 28 28 27 27 26 26 26 27 27 27 28 28 29 30 32 34 36 38 39 39 39 39 39 39 39 39 39 39 40 41 42 43 44
35 36 36 35 33 30 29 29 28 28 28 28 28 28 27 28 28 28 27 27 27 28 30 32 34 36 37 38 39 39 39 40 40 40 40 40 41 42 43 44 45 46
29 31 31 31 29 29 29 29 29 29 28 28 28 28 28 29 29 30 30 30 31 32 34 36 37 37 38 39 39 40 41 41 42 42 43 43 44 44 45 45 46 47
25 26 27 27 28 29 29 29 30 30 30 29 29 29 30 31 31 33 33 33 34 36 37 38 38 39 40 40 41 41 42 43 44 45 45 46 46 46 46 47 47 48
29 28 28 29 31 33 33 33 34 34 33 33 34 35 36 36 37 37 37 38 39 40 40 39 40 40 41 42 42 43 44 44 45 46 46 46 46 47 47 47 47 47
35 35 34 35 38 38 38 37 36 35 35 35 37 38 39 39 40 40 41 41 41 42 41 41 41 41 42 43 43 44 44 45 46 46 46 47 46 46 46 46 47 47
36 35 35 37 38 39 39 37 35 34 34 35 36 37 37 38 39 40 40 41 41 41 41 41 42 43 43 44 44 45 45 45 46 46 47 48 48 48 48 48 48 49
34 34 34 35 35 35 35 35 34 34 35 37 38 39 40 41 42 43 42 42 41 42 43 43 44 44 44 44 44 45 45 46 46 47 48 49 49 50 50 50 51 51
29 33 36 38 39 40 39 38 38 38 40 42 44 45 45 45 46 46 46 45 43 43 44 44 45 46 46 46 46 46 46 46 47 48 49 50 50 51 51 51 51 51
34 35 38 40 42 43 43 43 45 45 47 48 48 48 48 49 49 48 48 48 47 46 46 45 46 47 47 47 46 46 47 48 49 50 51 52 52 52 53 53 53 53
39 40 42 44 44 43 42 42 43 45 48 50 50 50 49 48 47 47 47 47 46 46 45 46 47 47 47 47 47 48 49 50 51 52 52 53 53 54 54 54 55 55
40 42 44 47 48 47 45 44 44 45 47 48 47 46 45 44 44 45 46 46 45 45 46 47 47 47 47 48 48 49 51 52 53 54 54 55 55 56 56 56 56 56
41 41 43 46 48 49 49 49 50 49 48 45 42 43 44 45 45 47 47 47 47 48 49 49 50 50 50 49 50 53 56 57 57 57 57 58 59 59 59 59 59 59
45 43 42 44 48 50 52 53 52 51 48 45 44 46 49 50 50 50 51 52 52 52 52 52 53 54 55 57 59 61 64 65 64 64 64 64 64 63 62 62 61 62
52 50 47 46 47 48 51 52 52 51 50 49 50 52 53 54 55 55 56 57 57 56 56 57 59 61 63 65 67 69 69 69 68 68 68 68 68 66 65 65 65 65
53 54 53 52 51 51 51 53 54 54 53 54 56 55 54 55 58 58 57 58 59 60 63 66 68 69 70 71 72 72 72 70 69 69 70 70 70 69 68 67 67 67
55 54 55 57 57 57 56 57 57 56 55 57 58 57 56 58 60 61 61 63 65 67 70 72 72 73 73 74 74 73 72 70 69 69 69 69 69 69 68 68 68 68
61 60 59 60 62 63 62 61 60 60 60 62 64 64 65 66 68 69 70 71 72 73 74 74 74 74 74 74 74 73 71 70 69 69 69 69 69 69 68 69 69 69
68 67 65 64 65 66 66 66 66 65 66 68 70 72 74 75 76 77 77 77 77 77 76 76 76 75 74 73 73 72 71 70 70 70 69 69 69 69 69 69 69 69
73 73 73 70 67 66 67 69 70 71 73 75 77 79 81 81 81 81 80 80 79 78 77 76 76 75 73 72 72 72 71 71 71 71 70 70 71 71 71 70 70 71
77 77 77 76 73 71 71 73 75 77 79 81 82 82 83 82 82 81 81 79 78 77 76 75 75 73 72 72 72 72 72 73 73 73 73 73 73 73 72 71 71 70
82 81 81 80 80 79 79 81 84 85 86 86 86 85 84 83 82 81 80 79 78 77 76 75 74 74 73 73 73 73 73 73 73 73 73 73 73 72 72 70 69 69
87 87 87 86 85 85 86 87 89 90 91 91 91 89 88 85 83 81 80 80 79 78 76 75 74 74 74 73 73 73 73 72 71 71 71 71 71 71 70 69 69 68

ECMWFNIL_250_spd_033.txt.gz
Wind_Speed
32 33 33 34 34 34 34 35 35 35 34 34 34 33 32 31 30 29 28 28 27 27 28 28 29 29 29 29 29 29 30 30 31 31 31 31 31 31 30 30 29 29
32 33 33 33 33 34 34 35 35 35 34 34 34 33 32 31 30 30 30 30 29 29 30 30 30 30 30 31 31 31 32 32 32 31 31 30 31 31 31 32 32 32
32 32 32 32 32 33 33 34 34 34 33 33 33 33 32 31 30 30 31 31 31 31 31 31 31 31 32 32 33 33 33 33 33 32 31 31 31 31 31 31 31 31
30 29 29 29 30 30 31 31 32 31 31 31 31 31 30 30 29 29 30 30 30 30 31 31 31 31 32 32 33 33 33 32 31 30 29 28 27 27 27 28 28 28
26 26 25 25 25 24 25 26 27 27 26 27 28 27 27 27 27 27 28 28 28 28 29 29 29 28 28 29 29 29 29 29 28 27 25 23 23 24 26 27 28 29
21 21 20 20 19 19 19 20 22 23 23 23 24 24 24 24 25 25 25 25 26 26 26 26 26 26 26 27 27 27 27 27 27 25 24 23 24 25 26 28 29 30
17 17 17 17 16 16 16 16 18 20 22 23 23 24 24 25 25 25 25 25 25 26 26 27 27 27 27 27 27 27 27 27 27 26 26 26 27 27 27 28 29 29
18 19 19 19 19 18 18 17 17 18 21 23 25 27 28 28 28 27 27 26 25 26 27 27 27 27 28 28 28 28 28 27 27 27 27 28 28 28 29 29 28 27
22 22 22 22 23 23 22 21 21 21 22 23 25 28 29 30 31 31 30 28 27 27 27 27 27 28 29 29 30 30 30 29 29 29 30 31 32 32 32 30 29 28
24 25 24 24 26 26 26 25 25 26 27 27 28 29 30 30 31 32 32 31 31 30 31 31 31 32 32 33 33 33 33 33 32 33 34 36 36 35 33 31 31 30
25 25 26 26 27 28 29 29 30 31 31 31 32 33 33 33 33 34 34 35 35 35 35 36 36 36 37 37 38 38 38 38 39 40 41 41 39 36 34 34 33 32
26 26 27 28 30 31 32 34 35 36 35 34 34 35 36 36 37 38 38 39 39 39 39 39 39 40 40 40 41 41 42 43 44 45 45 43 40 38 37 37 37 36
27 27 27 29 32 34 36 37 38 39 38 38 38 38 37 37 37 38 39 39 40 40 40 40 41 41 41 41 41 42 42 42 42 43 42 41 41 41 41 42 42 42
28 28 29 31 33 37 40 41 41 40 39 39 41 41 41 40 40 40 40 40 41 41 41 41 42 42 42 42 42 42 42 41 41 41 42 42 43 44 45 46 46 47
31 32 32 33 35 37 40 43 45 45 45 44 43 43 43 44 44 45 45 44 44 43 43 44 44 45 45 45 44 44 43 43 44 45 45 46 47 47 48 49 50 51
33 32 31 33 35 37 41 44 46 47 47 47 46 46 46 48 49 49 49 49 48 47 48 48 48 48 48 47 46 46 47 47 48 49 50 50 51 52 53 53 54 55
36 35 34 36 37 39 41 44 45 45 46 47 48 49 50 50 51 51 51 50 49 49 50 50 50 50 49 49 49 49 51 52 53 53 54 54 55 55 56 57 57 58
38 37 38 39 39 39 40 42 44 45 46 47 48 48 49 49 50 50 50 50 50 49 50 50 50 49 50 50 51 52 53 54 55 56 56 57 57 58 59 59 60 61
40 39 40 42 42 43 43 44 45 45 46 46 46 46 47 47 48 49 49 48 48 48 48 47 48 48 50 51 53 54 55 56 58 59 59 59 60 60 61 62 62 63
42 43 45 46 47 48 48 49 49 49 49 49 50 50 52 52 53 53 53 52 51 51 51 51 52 53 54 55 56 57 58 58 59 60 60 60 61 61 62 63 64 64
49 50 51 52 53 52 53 53 53 54 54 54 55 56 57 58 59 60 60 60 60 60 60 60 61 61 61 62 62 63 63 62 62 62 62 63 64 65 66 66 67 68
56 56 57 58 58 58 58 58 58 58 58 59 59 60 61 62 62 63 63 64 65 66 66 67 67 67 67 68 69 69 69 68 67 67 67 67 68 69 70 71 73 74
62 62 62 62 62 62 62 61 61 61 61 62 63 64 65 66 66 67 67 68 69 70 70 71 71 71 72 72 72 72 72 72 73 73 73 73 73 75 76 78 80 81
67 67 66 65 65 64 63 62 62 63 63 63 64 65 67 68 69 70 71 72 73 74 75 75 76 76 76 75 75 75 75 75 77 78 79 80 81 82 83 84 85 86
67 67 67 67 66 66 65 66 66 67 67 67 68 68 69 69 70 72 74 75 77 78 79 80 80 81 81 80 80 80 80 80 81 82 83 85 85 86 87 87 88 89
67 68 70 71 71 71 71 71 71 71 71 72 74 74 73 73 73 75 77 80 82 83 83 85 86 86 86 86 86 85 85 85 85 86 86 87 88 88 89 89 90 90

ECMWFNIL_250_spd_036.txt.gz
Wind_Speed
37 36 36 36 36 36 35 34 33 33 33 33 32 32 32 32 32 32 32 31 31 30 30 29 28 27 26 26 26 26 27 28 28 28 28 28 28 27 28 27 23 26
35 35 35 36 35 35 34 33 33 33 33 33 32 32 32 32 32 31 31 31 30 30 29 28 27 26 26 26 27 27 28 29 29 29 29 29 29 28 29 29 27 29
34 34 34 34 34 33 32 32 33 33 33 33 33 33 33 32 32 31 31 30 30 30 29 28 27 27 27 27 28 28 29 29 29 30 31 31 31 31 31 32 32 32
32 32 32 32 32 31 31 32 32 32 32 32 33 33 33 32 32 31 31 30 29 30 29 29 28 28 28 28 29 30 30 30 31 32 33 34 33 34 33 33 33 32
30 30 30 30 29 29 30 31 31 30 30 30 31 31 31 30 30 30 30 29 28 29 29 28 28 28 28 28 29 31 31 32 33 35 35 36 35 35 35 33 32 30
27 27 27 27 27 27 27 27 26 26 25 26 26 26 26 27 27 27 26 25 25 25 26 26 26 26 26 27 27 28 29 31 32 33 33 33 33 33 32 30 28 27
19 19 20 21 21 20 20 21 21 21 21 21 22 22 22 23 23 23 22 21 22 23 24 24 23 24 24 24 25 25 26 27 28 28 29 29 30 29 29 28 27 28
15 14 14 15 15 15 16 18 18 18 18 19 19 19 20 20 20 20 20 20 21 22 23 23 23 24 24 23 23 24 24 25 26 26 27 28 29 29 29 29 30 31
18 18 18 18 18 19 20 22 22 21 20 20 20 19 18 19 20 20 20 21 22 23 24 25 25 25 25 24 24 24 24 25 26 27 28 29 30 31 31 32 33 34
20 21 22 22 23 23 24 25 25 24 23 22 21 20 19 20 20 20 20 21 22 23 24 26 26 27 27 26 25 25 25 26 27 29 30 31 32 33 34 35 36 38
21 23 24 24 23 24 25 25 25 25 24 24 23 23 22 22 22 22 21 21 22 23 24 26 27 28 28 28 29 29 29 30 31 33 33 34 34 34 34 35 36 36
23 24 25 25 24 23 24 25 25 25 25 25 25 25 25 25 25 25 25 24 24 25 27 28 29 30 31 32 33 33 34 34 34 34 35 35 35 36 37 37 36 36
24 25 25 25 26 26 26 27 27 28 28 28 28 29 29 29 29 29 29 28 28 29 31 31 32 32 32 33 34 36 36 37 37 37 38 38 40 42 42 41 39 38
26 25 24 24 26 27 27 28 29 31 32 32 32 32 32 32 33 33 33 33 33 34 34 34 34 35 36 37 39 39 40 41 41 41 42 43 44 46 45 43 42 41
27 26 24 25 26 27 28 30 33 35 35 35 35 35 35 35 35 35 35 35 36 36 36 36 37 38 39 41 42 42 43 43 43 44 45 45 46 46 45 45 44 44
28 29 28 28 29 30 31 34 36 37 38 39 40 39 38 37 36 35 35 36 36 37 37 38 39 40 42 43 44 44 44 44 45 46 46 46 46 46 45 45 46 46
32 33 33 32 33 33 34 37 38 39 40 43 42 40 39 38 37 36 37 37 38 39 40 41 43 44 44 44 44 44 44 44 45 45 45 45 45 45 46 47 48 49
37 37 36 37 37 36 36 39 40 40 42 44 43 41 40 40 39 38 38 39 41 42 42 42 42 42 41 41 41 42 42 43 43 44 44 44 45 46 47 49 50 51
38 37 39 40 40 38 39 40 41 42 42 43 43 42 41 39 39 39 40 40 41 40 40 39 39 39 39 39 40 40 41 42 42 43 45 46 49 51 52 54 55 56
38 38 41 43 42 41 41 42 42 42 42 42 41 40 40 39 39 39 39 39 39 38 39 39 40 41 41 42 43 45 46 48 50 51 53 55 57 58 60 60 62 63
40 42 44 45 44 43 42 42 42 41 41 41 41 41 41 41 42 42 43 43 42 43 44 45 47 48 49 51 52 53 55 56 57 58 60 61 62 63 64 65 66 67
44 45 46 46 46 45 43 43 42 41 40 40 42 43 43 44 45 47 48 48 49 50 51 52 53 54 55 56 57 58 59 60 62 63 64 65 66 67 68 68 70 71
47 48 48 48 47 46 45 45 45 44 44 43 43 44 46 48 50 51 51 52 53 54 55 55 56 57 59 60 62 63 64 65 66 67 68 69 69 70 71 72 73 74
50 50 51 51 50 49 48 47 47 48 48 49 50 52 54 56 57 57 58 57 57 58 58 59 60 61 62 64 66 67 68 69 70 71 72 72 73 74 74 75 76 76
54 54 55 55 55 54 53 53 53 54 56 57 58 59 59 59 59 60 60 59 60 61 62 63 65 66 68 70 71 72 73 74 75 76 76 77 77 77 77 77 77 78
59 60 61 61 60 60 61 61 62 62 63 63 63 63 62 62 62 62 62 63 65 66 68 69 70 72 74 75 76 77 77 78 79 79 80 79 79 79 79 79 80 80

ECMWFNIL_250_spd_039.txt.gz
Wind_Speed
48 53 55 54 53 51 49 48 47 45 45 44 44 44 44 43 42 42 41 40 39 39 38 36 35 34 33 33 32 31 31 30 30 29 29 32 34 32 31 31 32 34
49 53 54 54 53 50 48 45 43 43 43 43 43 42 41 40 40 40 39 38 38 38 37 36 34 33 33 32 32 30 30 29 29 30 31 33 34 35 33 31 32 35
45 48 50 50 49 47 46 45 43 42 42 42 42 41 39 39 39 39 38 37 37 37 36 35 35 34 33 32 30 29 28 28 28 29 30 31 32 34 35 34 35 37
41 43 44 44 44 43 43 42 42 42 41 41 41 40 39 39 39 38 37 37 36 36 37 36 35 34 33 32 30 29 28 28 28 29 29 30 31 32 33 35 35 35
38 40 39 39 39 40 40 40 41 41 41 40 40 39 39 38 38 38 37 37 36 37 37 36 35 34 32 31 29 28 28 28 28 29 28 28 29 30 31 33 33 33
35 37 35 33 35 37 37 38 38 39 39 39 39 38 38 37 37 37 37 36 36 36 36 35 34 32 31 29 28 27 27 27 28 28 27 28 29 30 31 33 34 35
34 35 32 31 33 34 34 35 36 35 35 35 35 35 34 34 34 34 35 35 35 35 34 32 31 30 29 27 26 25 25 25 26 26 27 28 30 31 32 33 34 34
30 29 28 28 29 29 29 30 30 30 30 29 27 26 25 25 26 27 28 29 30 30 29 28 26 25 24 22 22 22 22 22 23 24 24 25 26 27 27 28 28 28
24 22 22 23 23 22 22 22 22 22 22 21 20 19 19 19 19 20 20 21 22 22 21 21 21 20 19 18 17 18 18 19 20 21 22 22 23 23 24 24 25 26
21 21 22 22 22 21 21 21 21 21 21 20 21 21 21 20 20 19 19 17 17 16 15 15 16 16 16 16 17 17 18 19 19 20 21 22 23 23 23 24 25 26
23 24 25 24 24 23 23 23 23 24 24 24 24 24 23 23 22 22 21 19 17 15 14 14 14 14 14 15 17 18 19 20 20 21 21 22 23 24 24 26 26 27
26 26 26 25 24 24 24 25 25 26 26 27 27 26 25 24 24 23 22 20 18 17 16 16 15 15 15 16 17 18 19 20 20 20 21 22 24 26 27 28 29 30
28 28 28 28 27 27 26 26 26 26 27 27 27 26 26 25 25 24 23 21 20 19 19 19 20 19 19 19 19 19 20 20 21 22 24 26 27 28 29 30 31 32
30 31 32 32 30 29 28 27 27 27 28 28 28 28 28 28 27 26 25 24 23 23 23 23 23 24 24 24 23 22 22 22 24 26 28 29 30 30 31 31 32 33
32 32 33 33 32 30 29 28 28 29 30 31 31 31 30 29 29 28 27 27 27 27 28 27 27 28 28 28 27 25 25 26 28 29 31 32 32 32 33 33 34 35
34 34 34 35 33 32 31 30 30 30 31 34 34 32 31 30 30 30 29 29 29 29 30 31 31 31 31 31 30 29 30 32 32 32 32 33 33 34 34 35 35 36
36 35 36 35 33 32 31 31 31 31 34 36 35 32 32 32 32 32 31 31 31 31 33 34 35 35 35 34 34 35 36 36 35 33 33 33 34 35 36 36 37 38
37 37 37 37 34 33 33 33 34 35 37 38 36 34 35 35 35 35 34 33 34 35 36 37 38 38 38 38 39 40 39 36 34 33 33 34 35 36 37 38 39 39
38 38 38 38 36 35 36 38 39 39 40 41 40 39 39 40 40 39 38 37 38 38 39 39 40 40 41 41 40 38 35 33 33 34 35 36 38 39 39 40 41 43
38 37 37 38 37 37 38 42 44 45 44 44 44 43 42 42 42 42 41 40 39 39 40 40 40 40 40 38 36 34 34 35 36 37 39 40 41 41 42 43 45 46
38 37 38 39 38 38 41 46 48 49 48 48 47 46 43 42 42 43 43 41 40 39 39 39 38 38 37 36 36 36 38 39 39 41 42 43 44 46 47 48 49 51
39 40 41 42 42 44 47 50 52 51 50 50 49 47 45 44 43 43 43 42 41 41 41 40 39 38 38 40 41 42 43 44 45 47 48 50 51 52 53 54 55 57
43 44 45 46 48 50 51 53 53 51 50 49 49 48 47 47 46 45 44 43 44 45 45 45 45 45 45 47 48 49 50 51 52 53 54 55 56 57 58 59 61 62
46 48 48 49 52 52 50 51 51 51 50 50 50 50 50 50 49 48 46 45 46 48 49 50 51 51 52 53 53 54 55 56 57 58 59 60 61 62 63 64 66 69
49 51 51 52 53 52 50 50 50 51 52 53 53 53 52 52 52 51 50 49 50 51 53 54 54 55 55 56 57 59 60 61 62 62 63 64 65 66 68 70 72 75
51 51 51 53 53 53 52 52 53 54 55 56 56 55 55 55 55 54 54 54 54 55 56 57 58 58 59 60 62 63 64 64 64 65 66 68 70 72 74 76 76 78

ECMWFNIL_250_spd_042.txt.gz
Wind_Speed
47 47 49 50 52 57 59 57 55 52 51 50 49 50 51 51 50 49 48 48 49 49 49 48 46 43 41 42 41 40 40 39 37 38 37 37 37 38 38 36 34 35
44 45 47 49 52 55 57 56 54 53 52 52 53 54 53 52 51 48 47 47 47 47 46 45 45 43 40 39 37 35 35 35 36 37 38 37 37 37 38 37 35 35
41 42 44 47 50 52 53 52 51 49 49 51 53 53 53 50 48 46 45 46 46 45 44 43 43 41 39 37 35 34 34 34 33 35 36 36 35 35 37 38 38 38
38 39 41 43 45 47 48 49 49 49 49 51 52 51 49 46 45 45 45 45 45 44 43 42 41 40 39 38 37 35 34 32 30 30 31 33 35 35 37 39 40 39
36 37 38 39 41 42 44 45 47 49 50 51 50 49 48 46 47 47 47 45 44 42 41 41 41 40 39 39 38 37 35 31 30 31 32 34 36 35 36 38 39 39
33 34 35 35 36 38 39 41 43 45 47 48 48 49 49 48 48 47 45 44 42 40 40 40 40 40 40 39 39 39 37 35 34 36 36 35 35 34 35 37 38 38
31 31 31 32 33 35 38 40 41 43 45 46 46 47 46 45 44 42 42 41 40 39 39 39 39 39 39 40 39 39 39 38 39 39 39 38 38 38 37 36 36 34
30 30 30 31 33 35 37 38 40 41 42 42 42 42 40 39 38 38 38 38 37 37 37 38 38 38 38 38 39 39 39 39 39 39 40 40 40 40 39 38 34 31
30 30 30 31 32 33 33 33 35 37 38 38 38 36 35 33 33 33 34 34 34 34 34 34 33 33 33 33 34 35 35 36 36 37 38 38 38 38 37 36 33 31
29 28 28 29 29 29 29 29 31 33 34 33 33 32 31 29 29 29 29 30 30 29 27 26 25 24 25 26 27 27 28 28 29 30 31 32 32 32 31 30 29 29
32 28 26 26 26 26 26 27 28 29 28 27 27 26 26 26 26 26 26 26 26 25 23 21 20 20 19 20 21 21 22 23 23 24 24 24 24 25 25 25 26 26
38 32 27 26 26 25 25 25 26 25 25 24 24 24 24 25 25 24 24 25 25 24 23 22 21 20 19 19 18 18 18 19 20 21 22 23 23 23 24 25 25 25
36 31 27 28 28 28 27 27 26 25 25 25 25 25 26 26 26 27 27 27 27 26 26 26 25 24 22 20 18 18 18 18 18 20 21 22 23 24 24 24 25 25
28 26 27 30 32 32 31 29 26 25 26 26 26 28 29 30 30 30 30 31 30 29 27 26 25 24 22 21 20 20 20 20 20 21 22 22 23 24 24 25 26 27
25 24 29 33 35 36 34 31 28 27 29 29 29 31 33 33 33 33 32 31 29 27 24 22 22 22 21 21 22 23 24 25 25 24 24 24 25 25 25 26 29 31
26 25 29 34 36 37 36 34 31 31 32 31 32 33 35 35 35 35 33 31 29 27 25 24 24 24 24 24 24 24 25 26 27 27 27 28 29 30 30 31 33 34
29 28 32 34 36 37 36 36 36 35 35 34 34 35 37 37 37 36 35 33 32 30 29 28 27 27 28 28 28 28 28 29 30 31 32 33 34 36 36 37 37 36
33 33 36 37 37 38 38 39 38 37 37 37 36 37 38 38 38 37 37 36 34 33 32 32 31 30 30 31 31 32 33 34 35 35 35 36 37 39 41 40 38 36
35 37 42 43 42 42 42 42 41 39 38 38 38 38 39 40 40 40 38 37 37 36 35 35 34 33 34 34 35 36 37 38 38 38 38 39 40 42 42 39 37 36
40 43 47 49 49 47 45 43 41 39 38 39 39 39 40 41 42 41 39 39 39 38 37 37 37 37 37 38 39 40 41 40 40 40 41 41 41 40 39 38 38 38
45 47 49 51 52 51 48 44 42 40 39 40 40 40 40 41 42 42 41 41 41 41 40 40 41 41 41 42 43 44 44 42 41 41 41 40 39 38 38 40 40 41
48 49 50 52 52 51 48 45 43 42 42 42 42 42 42 42 43 43 42 42 43 44 44 45 45 45 45 46 46 45 43 42 40 40 39 40 40 41 42 43 44 45
49 48 49 52 52 50 47 45 44 44 43 43 45 45 45 44 43 43 44 44 46 47 48 48 49 48 48 48 47 45 43 42 41 41 42 44 45 46 46 47 48 48
51 49 49 52 54 52 47 45 45 45 45 46 48 48 47 46 45 46 47 48 49 50 50 50 51 51 50 50 48 46 45 44 44 45 47 48 49 50 50 51 53 54
53 52 52 54 55 53 49 46 47 48 49 50 51 52 52 50 49 50 51 52 51 51 51 51 52 52 52 51 50 48 47 47 48 50 52 53 54 55 56 57 58 59
54 54 54 55 55 54 52 51 51 51 52 53 54 55 54 53 52 52 52 52 52 52 52 52 52 52 53 52 51 51 50 51 53 54 57 59 59 60 61 61 62 64

ECMWFNIL_250_spd_045.txt.gz
Wind_Speed
54 53 52 50 50 50 48 48 49 49 51 52 53 53 54 54 53 51 50 50 50 50 51 51 51 52 52 52 53 53 53 53 54 53 52 51 50 50 49 47 44 41
52 51 50 49 48 47 46 47 48 49 50 51 53 53 53 52 52 50 48 48 49 50 50 50 50 51 51 52 52 53 54 54 54 53 51 50 48 46 44 41 39 38
47 46 45 45 44 44 45 46 47 48 49 51 52 53 52 51 51 50 48 46 46 46 46 47 48 49 50 52 53 54 54 53 52 50 48 46 44 41 40 38 37 37
41 40 40 40 41 42 43 45 46 47 48 50 51 52 51 50 51 51 49 48 47 47 47 48 50 51 52 52 52 52 50 48 47 46 43 42 41 39 37 36 36 36
37 35 36 38 38 40 42 43 44 45 46 48 50 51 50 50 52 52 51 50 50 51 51 52 53 53 52 51 49 48 46 44 44 42 40 39 39 39 38 37 36 35
35 34 34 36 37 39 41 42 42 43 44 46 47 48 49 50 51 52 52 51 52 52 52 53 53 52 50 49 47 45 43 43 41 40 39 39 40 40 40 39 37 35
35 36 36 36 37 38 39 40 40 41 42 44 45 47 48 48 48 48 49 50 50 51 51 51 51 50 49 47 45 44 43 42 41 39 39 40 40 40 40 39 38 37
36 37 39 39 39 39 39 39 39 39 41 43 44 45 45 44 44 45 47 49 51 51 51 50 50 49 48 46 45 44 44 43 42 40 40 40 39 39 38 38 38 38
39 37 39 41 41 40 40 39 38 38 39 41 42 42 42 42 42 44 45 48 49 49 49 49 49 48 47 45 44 44 44 43 43 42 40 39 38 38 37 37 37 38
38 37 37 39 40 40 41 40 38 37 37 38 40 41 42 42 42 43 44 44 44 45 46 46 46 45 43 42 41 40 40 41 40 39 38 37 36 35 35 35 36 37
36 36 33 36 39 39 41 41 39 37 36 37 38 39 39 40 40 40 40 40 41 41 41 41 40 39 37 35 34 34 34 35 34 33 32 30 30 29 29 30 31 32
31 33 31 33 37 39 41 41 39 38 36 35 36 35 36 37 36 36 35 35 35 35 34 34 33 31 30 30 30 29 29 28 28 27 25 23 22 22 22 23 24 25
23 28 29 31 34 36 38 38 37 37 36 34 33 32 33 33 31 31 30 30 29 28 27 27 27 27 28 28 28 28 27 26 25 24 22 21 20 19 20 21 21 21
20 24 27 30 33 35 34 35 35 36 35 33 31 30 30 29 28 28 28 27 25 24 25 26 27 28 29 30 30 29 28 26 26 24 22 22 21 20 22 23 23 24
22 24 25 28 32 35 34 34 35 35 35 33 30 29 29 29 29 29 27 26 25 26 27 28 29 29 29 29 28 28 27 26 25 23 22 22 22 22 24 25 25 26
27 25 24 24 28 34 36 36 36 35 36 35 32 31 32 32 32 31 29 28 28 29 29 30 30 29 29 27 25 24 25 25 24 22 22 23 24 25 26 27 26 27
32 30 28 27 29 35 38 38 39 40 40 38 35 35 36 36 35 33 31 31 31 32 32 32 32 31 31 30 28 26 26 27 26 25 25 25 25 25 26 27 28 30
35 35 35 34 35 38 38 36 38 42 43 40 38 39 41 41 39 37 35 35 36 36 35 34 33 32 32 32 32 31 30 29 29 29 28 27 27 27 28 29 31 33
40 39 40 40 40 41 41 40 40 41 42 40 38 40 44 44 42 39 39 40 40 38 36 35 35 33 33 34 34 34 33 32 31 31 30 30 30 30 31 33 35 36
44 43 45 46 45 44 45 46 45 43 42 42 41 42 45 46 43 41 42 42 41 39 38 38 37 35 34 35 36 36 36 35 35 34 34 34 33 33 35 36 39 39
49 48 49 50 50 49 50 52 51 47 45 47 47 47 49 50 47 44 44 44 43 42 41 40 39 37 36 37 38 38 38 39 38 38 37 37 37 37 38 40 41 42
55 52 53 54 54 53 54 56 57 53 51 51 52 52 53 54 51 48 47 46 46 45 44 42 41 39 39 39 40 41 41 41 41 40 40 40 41 41 42 43 44 44
58 56 56 56 56 55 55 57 57 56 54 53 54 55 55 55 54 53 51 50 49 47 46 44 42 41 41 41 42 42 42 42 42 43 44 44 44 45 45 46 46 46
59 59 58 57 57 58 58 58 56 54 53 54 56 57 58 57 56 55 53 51 50 49 47 45 44 44 43 43 44 44 44 44 45 46 47 47 47 47 47 48 49 49
60 60 59 58 58 60 60 58 55 52 52 55 57 58 59 59 58 57 54 53 51 51 49 48 48 47 47 46 47 47 48 48 48 49 50 49 49 50 50 51 51 51
63 63 62 60 59 60 60 58 55 53 53 54 55 56 57 58 59 59 58 56 54 53 53 52 51 51 50 49 50 50 51 51 51 52 52 52 52 53 53 53 53 53

ECMWFNIL_250_spd_048.txt.gz
Wind_Speed
35 35 36 39 42 41 41 41 43 43 41 39 39 38 38 36 33 34 37 39 39 40 40 42 43 44 44 44 44 44 44 44 44 44 45 46 47 47 48 48 49 49
36 39 41 42 43 43 42 42 43 43 39 37 35 35 34 32 30 32 36 36 36 38 39 40 41 42 42 42 42 43 43 44 44 45 45 46 47 47 48 49 49 50
32 39 42 42 44 44 42 43 44 42 38 35 33 32 32 30 29 30 32 32 33 36 38 38 40 41 41 41 41 42 43 44 44 45 45 45 46 47 48 49 50 49
31 36 42 43 44 44 42 43 44 41 38 36 33 31 30 29 29 29 29 30 31 34 36 37 38 39 40 40 41 42 42 43 43 44 44 45 47 49 50 50 49 48
34 34 38 41 42 42 42 42 40 38 36 36 34 32 31 29 29 29 29 29 31 33 35 36 37 39 41 42 43 43 43 43 44 45 46 48 49 50 49 49 47 45
36 32 30 35 40 43 43 41 38 35 35 36 35 34 32 31 30 30 30 30 31 32 34 36 38 40 43 45 46 45 45 45 46 47 48 49 49 49 48 47 46 44
40 35 27 27 35 42 42 39 36 34 33 35 36 35 34 33 32 31 30 31 31 32 34 35 37 39 43 46 47 47 46 46 47 47 48 49 49 49 48 46 45 43
44 42 31 24 27 35 38 36 35 34 33 35 37 37 35 34 33 32 31 31 30 31 32 34 35 37 39 41 43 45 45 46 47 48 49 48 48 46 45 43 42 41
44 44 37 28 27 30 35 36 35 36 36 36 37 37 35 35 34 33 32 30 30 30 31 32 33 34 35 37 39 42 44 45 46 46 45 43 42 41 41 41 40 40
38 39 36 32 28 28 35 39 39 40 40 38 37 36 34 33 33 33 32 31 29 29 30 31 31 32 34 35 37 39 40 41 40 39 38 37 37 37 37 38 38 39
34 33 34 32 27 26 36 43 42 42 42 39 37 35 32 32 33 33 33 31 29 29 30 31 31 32 33 34 35 35 34 34 33 32 31 31 31 32 33 35 36 36
35 33 34 33 26 24 32 41 43 42 41 38 35 33 32 32 32 33 33 31 30 30 31 32 32 32 32 31 30 28 27 27 27 27 27 27 28 29 30 32 32 32
37 34 34 33 27 25 27 33 39 40 39 37 35 32 32 32 32 33 32 31 31 31 30 30 30 29 28 26 24 22 22 23 24 26 27 28 29 29 30 30 29 29
39 36 35 32 29 28 29 31 35 38 39 38 36 34 33 33 32 31 30 30 30 29 28 26 25 24 22 21 21 21 21 23 24 26 28 29 30 30 30 30 29 28
41 40 37 34 32 33 34 34 36 40 41 39 37 37 36 34 32 29 27 28 27 25 24 22 21 21 20 20 21 22 23 25 26 27 28 28 28 28 29 29 28 27
42 40 38 37 35 36 38 38 40 42 41 38 36 37 37 36 34 30 27 27 26 24 24 23 23 22 21 21 22 23 25 26 27 28 27 26 26 27 28 28 27 26
41 37 36 37 36 36 40 43 43 42 41 39 39 39 38 36 35 32 30 28 27 26 26 26 25 24 23 23 24 24 26 27 28 28 28 28 27 26 27 28 27 27
40 36 36 38 38 37 40 43 44 44 43 41 40 40 39 38 37 36 34 32 31 30 29 28 28 28 27 27 26 26 28 29 29 30 31 31 30 29 30 30 30 29
41 39 38 40 40 39 39 40 42 46 47 44 41 40 41 41 41 41 39 37 35 34 33 32 33 33 32 31 31 30 30 30 31 32 33 34 33 33 33 32 32 31
44 43 42 41 42 41 40 41 43 47 49 48 46 43 41 39 40 42 43 41 38 36 36 36 37 38 38 37 36 35 33 33 34 35 36 37 37 36 36 36 36 35
50 49 48 46 45 45 44 44 45 49 52 51 49 47 43 39 39 42 44 42 40 38 38 38 39 41 42 41 40 39 37 36 36 37 38 39 40 40 40 40 41 40
54 53 53 50 48 47 47 46 46 49 52 53 51 50 48 44 44 45 44 42 41 42 42 41 42 44 45 46 46 44 42 41 40 41 42 42 42 43 43 43 44 44
57 55 55 53 51 51 50 49 47 48 51 52 53 52 50 48 48 49 48 44 43 44 46 47 47 48 49 50 52 52 50 48 46 46 46 46 45 45 46 46 47 47
60 57 54 54 56 56 54 53 52 51 51 52 54 56 55 52 52 53 53 51 49 49 51 52 52 53 53 53 54 56 56 54 52 51 50 48 48 47 48 49 50 51
63 61 59 59 61 61 58 56 56 56 56 56 58 60 59 58 57 57 58 59 59 58 59 59 58 57 56 55 56 58 59 58 57 55 53 51 50 50 50 52 53 54
67 65 65 65 65 64 63 60 59 59 60 60 62 64 63 62 61 60 60 62 63 63 63 62 61 61 59 58 59 61 62 62 60 58 56 54 53 53 53 54 55 56

ECMWFNIL_250_spd_051.txt.gz
Wind_Speed
33 32 32 36 33 29 29 29 30 30 32 34 34 33 33 33 33 33 33 32 33 34 34 33 32 32 33 34 34 34 35 35 34 33 34 35 36 37 37 38 38 39
32 29 34 41 40 37 36 35 34 32 30 31 32 33 33 33 34 33 31 29 29 30 31 31 30 30 30 30 30 31 32 31 31 31 32 34 35 36 37 37 38 38
33 28 32 41 43 43 41 38 37 36 34 33 33 33 33 33 33 31 28 27 26 27 29 30 30 30 29 29 29 29 30 30 29 29 31 32 33 34 36 37 37 38
36 31 32 37 41 44 44 43 43 42 39 36 34 35 33 33 32 28 26 27 27 26 25 26 27 29 29 29 29 29 29 29 29 29 31 32 33 35 36 37 38 38
38 33 33 34 38 42 44 45 45 45 43 37 33 33 32 31 28 25 25 27 28 27 25 23 23 25 27 28 29 29 29 30 30 31 33 34 35 37 38 38 38 39
41 37 36 36 38 40 42 44 43 44 43 39 34 32 31 29 26 25 27 28 29 28 26 23 22 22 24 26 27 28 29 31 32 33 35 36 38 39 39 40 40 41
43 41 40 42 42 40 39 43 43 42 42 41 38 34 33 33 30 30 30 31 31 30 28 25 23 21 22 23 24 27 29 33 35 37 38 39 40 41 42 43 43 43
42 44 46 47 47 42 39 40 40 40 40 41 42 40 39 38 35 32 32 33 33 33 30 27 23 21 22 22 24 26 29 32 35 37 40 41 42 43 43 44 43 43
36 43 48 50 49 45 41 39 38 39 39 37 38 41 41 38 35 33 34 35 35 34 32 28 24 22 22 22 24 27 29 31 33 34 36 37 38 38 39 40 39 39
36 39 46 51 51 47 44 40 38 40 38 29 27 33 36 34 33 34 35 35 34 33 31 29 25 23 24 24 25 26 27 29 29 30 31 31 32 33 33 32 31 29
41 39 42 49 50 48 46 42 38 39 38 30 27 28 28 29 32 35 36 32 30 30 29 28 26 24 25 25 26 26 27 27 27 28 29 29 28 26 24 22 22 22
47 44 43 46 48 48 47 44 39 38 37 34 33 29 25 29 33 36 34 31 29 30 29 27 26 25 26 26 27 27 27 27 27 28 27 24 20 18 18 19 20 22
50 50 48 46 46 45 44 42 39 38 36 36 37 33 28 30 33 35 34 32 32 31 30 28 27 25 25 26 26 26 27 26 26 24 21 18 16 16 17 18 20 21
51 52 52 51 48 45 42 38 36 36 35 35 36 34 30 32 34 35 34 33 32 31 30 28 26 25 24 25 25 24 23 22 20 18 16 16 16 17 18 18 19 20
54 55 55 54 50 47 44 39 34 35 35 36 38 36 34 36 38 39 38 37 38 37 33 28 25 23 22 21 21 21 19 18 17 16 16 17 18 18 19 19 19 19
57 57 57 55 50 46 45 41 36 34 35 38 42 42 40 39 39 40 41 42 45 47 44 36 28 23 21 20 19 19 19 19 18 18 18 19 20 20 21 21 19 19
55 55 56 55 51 47 45 42 38 37 37 39 42 45 45 43 40 39 40 40 42 45 45 41 34 27 24 23 22 22 22 22 21 21 21 21 22 23 23 23 21 19
49 48 50 52 51 47 45 42 40 40 41 41 43 45 46 45 42 41 42 40 39 40 40 38 35 31 28 27 26 26 26 26 25 25 24 24 24 24 25 25 23 22
46 45 47 49 48 46 45 43 42 42 43 45 46 47 46 45 43 43 44 42 39 38 38 37 36 35 34 32 31 30 30 30 30 30 30 29 29 27 27 27 27 26
50 50 50 49 47 46 45 44 44 43 44 46 49 49 47 46 43 42 42 41 40 38 39 39 38 38 39 37 36 35 34 34 35 35 35 35 34 33 31 29 29 29
53 53 52 51 49 48 46 44 44 44 44 47 49 51 51 50 47 43 41 41 41 41 41 41 39 38 40 40 39 39 38 37 38 38 38 38 37 36 35 33 33 33
55 52 51 51 51 51 49 48 47 45 44 45 48 50 53 53 51 48 45 44 45 45 45 45 43 41 40 39 40 40 41 41 41 40 41 41 40 39 39 38 39 39
59 56 53 51 52 54 53 52 52 49 45 44 47 50 50 50 50 50 49 48 48 49 49 48 47 47 45 43 42 42 43 44 45 44 44 44 44 44 44 44 45 45
62 61 59 55 54 56 56 56 55 53 48 45 48 50 49 48 49 51 51 50 49 50 51 51 50 51 50 48 46 45 44 45 47 48 48 49 50 50 50 51 50 50
62 64 63 61 58 58 59 59 58 56 53 51 50 51 50 49 50 50 49 47 46 46 47 49 50 51 52 51 50 48 47 47 48 50 51 52 53 53 52 53 53 53
62 64 65 64 63 61 61 62 60 58 58 57 56 56 54 53 51 50 49 47 45 45 47 48 49 51 53 54 54 54 53 53 53 53 54 55 56 56 56 55 55 56

ECMWFNIL_250_spd_054.txt.gz
Wind_Speed
33 34 35 37 36 33 31 34 37 37 33 28 23 20 22 27 29 30 29 29 29 27 27 27 28 27 26 26 27 30 35 40 42 44 43 43 41 39 37 36 35 33
34 36 37 38 38 34 30 31 36 37 35 32 27 22 23 24 24 23 22 22 23 25 26 26 26 25 25 26 26 28 31 34 37 38 39 38 37 36 34 32 32 33
35 36 37 36 37 36 32 32 35 36 36 35 30 27 27 26 24 22 20 20 23 24 21 20 20 21 24 26 26 26 28 30 32 34 34 35 34 33 30 28 29 32
37 36 37 36 36 36 33 33 35 35 37 37 34 32 32 33 32 30 27 25 25 24 19 17 18 21 24 25 26 25 24 26 29 31 32 32 30 29 27 26 28 30
39 37 37 37 37 37 34 33 33 34 37 39 37 37 38 40 40 38 36 32 30 28 23 21 22 23 23 24 27 25 22 22 24 28 30 30 28 26 26 26 27 29
40 38 38 38 38 38 36 36 36 36 37 36 35 35 38 42 44 43 43 42 39 36 31 29 28 27 26 27 29 27 22 20 21 24 26 27 26 25 26 26 27 29
40 39 41 40 37 36 36 37 40 40 39 35 33 34 35 39 43 45 46 47 47 43 38 35 33 31 32 31 30 28 24 20 19 21 24 25 26 27 28 29 30 32
41 41 44 43 37 35 35 36 38 40 39 37 35 35 35 35 38 42 43 44 45 43 41 40 39 37 36 34 31 29 26 22 20 20 22 25 27 29 31 33 34 34
44 45 48 47 41 37 37 37 37 38 38 37 35 35 36 35 34 35 37 38 39 40 40 42 42 39 36 33 30 28 25 22 20 20 21 23 26 28 30 32 34 34
48 47 49 50 46 42 40 38 39 41 41 40 37 36 37 38 37 36 36 36 38 39 40 40 39 39 37 33 29 26 23 22 21 20 21 21 23 24 26 28 28 29
51 49 47 50 49 45 43 41 40 42 43 42 40 37 37 39 39 38 39 39 40 41 41 40 37 36 36 33 28 23 22 22 21 21 21 21 21 21 22 23 23 24
52 48 46 49 48 44 45 45 42 42 43 41 40 38 38 39 39 37 38 38 39 38 37 36 34 32 31 29 25 21 20 21 22 23 22 22 21 21 21 22 21 21
52 48 46 48 47 44 46 47 46 48 48 44 41 40 39 41 40 37 35 34 34 33 31 31 31 28 29 30 25 18 18 21 23 23 23 22 21 21 21 20 18 18
54 49 45 45 46 46 48 49 49 52 52 48 44 41 40 41 40 37 33 30 30 30 30 31 31 30 31 32 27 20 20 23 23 22 22 21 20 19 18 17 17 17
56 51 47 45 46 48 49 51 50 49 50 50 48 44 40 39 39 36 33 30 30 31 32 33 33 32 33 36 35 31 28 26 22 20 19 18 18 17 17 17 18 19
56 54 51 48 48 49 49 50 50 47 47 49 49 46 42 40 39 38 35 34 35 35 36 36 33 32 34 37 39 38 35 29 23 20 19 18 18 18 19 20 21 21
53 54 54 52 50 49 49 49 49 47 45 46 47 46 44 41 40 40 39 39 38 38 39 40 38 36 37 37 37 38 37 33 27 24 21 21 21 22 23 23 24 24
50 51 55 55 53 51 49 48 48 46 44 45 46 46 45 43 41 41 40 40 39 39 41 42 42 41 41 38 36 38 38 37 34 30 27 26 25 25 26 27 27 27
47 48 52 56 57 55 52 49 47 46 44 43 44 45 45 44 42 41 40 40 40 41 42 43 43 43 43 40 37 36 38 38 37 35 34 32 30 29 30 30 30 31
46 47 50 54 58 59 57 53 49 47 46 44 44 45 45 45 44 42 41 40 40 40 41 42 43 43 42 40 38 35 36 37 36 35 35 35 34 33 33 32 32 33
46 48 51 53 56 59 60 58 53 49 48 47 46 47 48 48 47 45 43 42 41 40 39 39 40 41 40 40 40 37 36 37 37 36 36 37 36 36 35 35 35 35
46 50 53 54 55 56 58 59 58 55 52 50 49 49 50 51 51 49 48 46 44 42 41 40 40 41 40 39 40 39 39 39 39 38 38 38 38 37 38 38 39 39
45 48 52 55 56 55 55 57 58 58 56 54 53 52 52 53 53 52 51 49 48 47 46 45 44 44 43 42 42 42 43 43 43 43 42 41 41 41 41 41 42 42
47 47 50 54 56 57 56 57 58 59 59 59 58 57 56 56 55 55 54 52 51 50 49 49 49 48 47 46 46 46 47 47 46 45 45 45 45 46 46 46 46 45
51 49 49 51 54 57 58 59 59 59 59 60 61 61 61 59 57 56 56 54 53 51 50 49 50 50 50 49 49 50 50 50 48 46 46 47 48 49 49 49 49 48
56 54 52 51 53 56 58 59 60 60 59 59 60 62 63 62 59 56 53 52 50 49 49 48 48 49 50 50 51 52 52 52 51 49 49 49 49 50 51 51 51 51

ECMWFNIL_250_spd_057.txt.gz
Wind_Speed
41 42 37 34 35 34 34 37 38 37 36 35 36 35 30 23 22 21 21 26 34 42 47 47 41 38 37 35 30 30 29 28 27 26 28 31 35 38 41 44 46 47
43 46 42 39 38 37 35 37 40 40 37 36 36 38 37 29 22 21 21 21 25 33 43 47 44 40 37 33 29 27 25 23 22 23 27 30 33 36 37 40 44 46
45 49 48 44 42 41 39 38 41 42 41 39 37 38 40 35 27 24 22 21 23 27 33 39 39 36 32 29 28 26 23 21 21 24 27 29 32 35 36 37 39 41
45 50 51 48 45 43 42 41 40 42 43 43 40 39 40 38 32 27 24 22 23 23 24 27 28 28 27 28 28 27 25 23 25 27 29 30 31 33 34 35 35 36
45 50 54 51 49 46 44 43 40 39 41 43 42 40 40 39 34 31 29 24 22 22 21 23 24 25 26 27 28 28 27 27 29 30 31 31 33 34 33 33 33 34
45 51 56 54 53 49 45 44 42 39 38 40 41 40 40 39 35 34 34 30 26 24 23 26 28 29 28 29 31 31 29 30 31 32 33 35 37 36 33 31 31 32
45 50 57 57 55 52 47 45 43 41 39 37 39 39 38 38 36 37 39 36 33 33 32 35 38 38 38 37 38 37 35 33 34 35 37 38 38 35 32 29 29 31
44 49 57 58 55 53 50 45 43 43 41 38 38 38 36 35 35 38 41 39 38 38 38 40 43 45 45 44 43 42 38 36 37 38 38 39 37 32 29 27 28 30
43 48 56 58 56 54 50 46 45 44 43 40 38 38 36 34 35 39 41 40 39 38 38 40 43 46 47 45 44 42 38 36 36 37 38 37 33 29 26 25 25 27
41 47 55 58 56 53 49 47 47 45 43 42 40 39 36 35 36 39 40 40 39 38 38 39 41 43 43 42 39 36 34 34 35 37 36 33 28 25 24 22 22 23
39 45 54 58 56 53 49 47 48 46 44 43 42 41 38 35 35 37 40 40 40 40 39 38 38 38 37 36 35 34 35 36 37 37 33 28 25 23 22 21 21 22
37 43 51 57 56 51 48 47 47 47 45 44 44 43 42 39 36 35 37 39 40 41 40 39 40 40 40 40 39 39 39 39 37 34 30 26 23 22 21 21 22 23
34 40 49 56 55 51 47 45 45 44 43 43 45 47 45 43 40 37 36 38 40 41 41 42 43 43 44 43 42 40 40 38 35 32 29 25 20 19 20 21 23 24
31 38 46 53 54 52 48 44 43 42 41 41 45 48 48 47 45 43 40 39 40 40 40 41 42 43 43 43 41 39 38 36 33 31 29 25 21 19 20 21 23 24
29 35 42 48 52 53 50 46 44 43 42 42 43 46 48 48 47 47 45 42 41 40 39 40 41 41 42 41 39 37 35 34 32 31 30 30 29 27 24 22 23 23
26 32 39 45 50 54 53 49 47 45 43 44 43 42 45 47 47 48 49 47 44 41 39 39 39 39 38 37 36 34 34 35 34 33 31 31 31 30 26 23 22 22
25 28 35 41 47 53 55 54 52 49 47 47 45 43 45 47 48 50 51 52 50 46 42 39 38 37 37 37 36 35 36 36 36 35 33 32 31 29 27 25 24 23
26 26 31 38 44 49 54 57 57 54 51 50 48 46 47 47 48 50 51 52 52 50 46 42 39 38 39 39 39 38 39 38 38 38 37 35 34 32 30 30 29 27
28 28 29 34 41 46 51 56 59 58 55 53 53 51 50 49 49 49 49 49 50 50 49 47 44 42 43 43 42 42 42 41 41 41 40 37 36 35 34 34 34 33
30 31 31 33 37 44 49 53 57 58 56 55 55 54 53 52 51 50 48 48 49 50 50 49 48 47 46 46 44 43 43 43 43 43 41 38 37 36 35 35 36 37
34 34 34 35 37 42 47 50 54 56 56 55 55 55 54 54 52 50 48 47 48 48 49 49 48 47 47 47 46 45 45 45 45 44 43 41 40 38 37 36 36 36
38 37 37 38 39 42 46 49 52 54 55 55 54 53 53 51 50 48 47 47 48 49 49 50 49 48 49 49 49 48 47 46 46 45 44 43 42 41 39 38 38 38
42 42 41 41 43 45 47 49 51 52 54 55 55 54 52 51 50 49 48 49 50 50 50 50 50 50 51 51 50 49 48 47 46 45 44 43 43 42 42 42 41 41
46 47 46 44 45 48 49 51 52 52 53 54 55 55 55 55 54 53 51 51 50 50 50 50 50 51 51 51 50 49 48 47 46 45 44 44 43 43 44 44 44 44
49 50 51 49 48 49 52 53 54 54 54 54 55 56 58 59 58 57 55 53 51 51 50 50 49 50 50 50 49 48 47 47 47 47 47 46 46 46 47 47 47 47
50 53 55 55 53 51 52 54 56 56 57 56 56 57 59 60 60 60 58 56 54 52 52 52 53 52 51 50 49 48 47 47 47 47 47 48 48 49 49 50 51 51

ECMWFNIL_250_spd_060.txt.gz
Wind_Speed
46 45 45 46 48 49 48 47 45 45 43 40 37 39 42 43 43 41 40 40 39 39 39 39 40 40 44 49 50 49 48 45 41 40 39 36 34 32 29 27 26 28
48 47 46 46 48 49 49 47 46 46 45 41 38 39 41 43 44 42 41 39 36 34 34 33 33 35 39 46 51 51 49 46 42 39 36 32 31 31 28 25 23 24
50 49 47 46 47 48 49 48 46 46 46 42 40 39 40 41 42 43 43 39 33 30 29 28 27 29 32 39 47 51 50 46 41 40 38 34 31 30 26 22 22 23
51 50 48 46 45 47 48 48 46 47 47 44 41 40 40 41 41 40 42 40 33 28 27 27 27 27 28 33 39 45 49 48 43 41 39 34 30 28 25 24 26 26
53 51 49 47 45 45 46 47 46 48 49 45 42 41 42 43 43 40 41 40 36 32 30 30 29 29 30 33 35 37 41 45 45 43 38 32 30 29 29 30 31 31
53 51 49 47 45 44 43 45 46 49 51 47 42 43 43 44 45 44 42 40 38 35 33 32 33 32 33 35 37 36 36 40 43 41 36 32 32 32 33 34 36 36
52 50 49 46 45 43 41 42 45 49 52 48 44 43 42 42 45 45 43 41 37 35 34 34 35 35 35 36 37 35 33 33 34 34 33 32 34 36 36 38 39 38
51 49 48 45 44 42 40 40 43 48 52 50 43 41 41 41 44 46 43 38 34 33 35 36 37 37 36 35 34 30 29 28 30 31 33 35 37 38 38 40 39 36
50 48 47 44 42 41 39 37 41 48 52 51 43 38 39 38 40 44 44 39 33 32 35 37 38 37 34 34 32 31 31 33 35 36 37 38 38 39 40 41 38 35
49 47 45 43 41 40 38 35 40 47 52 52 44 38 37 35 34 37 41 41 37 36 38 41 41 39 38 39 40 40 40 40 39 38 38 39 40 41 42 41 37 35
49 46 43 41 39 38 36 34 38 46 51 53 47 40 37 35 32 31 33 36 37 39 42 44 44 43 42 44 46 45 44 42 41 39 38 39 39 40 40 38 36 35
49 45 42 39 37 37 35 34 36 44 50 52 50 44 39 37 35 32 31 32 35 38 41 42 44 44 44 45 46 45 45 44 42 40 37 37 37 37 37 37 37 36
49 45 40 36 36 36 34 33 35 41 48 50 49 46 41 39 38 35 33 34 34 37 39 41 44 45 45 45 45 44 45 45 43 40 37 37 37 38 38 39 38 35
48 44 39 34 35 35 33 33 35 39 45 47 47 45 43 42 41 37 36 37 38 38 40 40 43 46 47 46 45 45 46 46 43 41 39 39 40 40 41 40 38 34
48 43 38 32 33 34 32 32 34 38 43 45 44 44 43 42 43 42 40 40 42 42 39 37 40 45 47 47 48 48 48 47 45 44 43 42 42 42 42 40 38 35
48 43 37 31 32 34 32 31 34 38 44 46 45 44 43 40 41 45 46 46 47 45 41 38 40 43 46 48 51 51 52 51 49 47 46 44 43 42 41 39 37 36
48 42 37 31 31 34 32 32 35 40 46 50 48 47 46 42 39 43 47 49 51 50 47 44 43 45 47 49 50 50 51 51 50 48 46 44 42 41 40 39 37 36
49 43 37 32 30 34 34 33 36 42 48 53 53 51 50 48 45 43 44 47 50 52 53 51 47 48 51 51 50 50 50 49 48 48 45 43 41 41 40 40 39 38
52 44 38 33 31 34 36 35 38 43 48 52 54 55 54 52 51 48 46 47 47 50 54 56 54 54 55 54 52 50 49 48 48 48 46 43 43 43 42 42 41 41
54 46 39 34 32 35 38 38 39 43 47 50 52 55 56 56 55 52 50 50 50 49 51 54 56 58 59 57 55 52 50 49 48 48 47 45 45 45 45 44 44 43
56 49 41 35 34 36 39 40 41 43 47 50 51 53 55 57 58 57 54 53 52 51 50 51 53 56 58 57 56 55 53 51 50 49 48 46 47 48 48 48 47 47
57 52 44 37 35 38 41 42 42 44 46 49 51 53 55 56 58 59 58 55 54 54 53 53 55 57 58 57 56 56 55 53 51 50 49 48 50 52 53 52 50 49
57 53 48 40 36 39 43 44 44 45 47 49 51 54 56 58 59 60 59 57 56 56 56 57 58 59 58 57 56 54 53 53 52 52 51 52 54 56 57 55 53 52
57 55 51 45 39 40 45 47 46 46 47 49 52 54 56 59 61 62 62 60 58 58 59 59 59 59 58 56 55 54 53 53 53 54 55 56 57 59 59 58 56 55
57 55 54 49 43 41 46 50 50 48 49 50 52 55 57 58 60 61 62 62 61 61 60 61 61 60 58 57 56 56 56 56 56 57 59 60 60 60 61 61 59 58
59 56 55 53 48 43 45 52 55 52 52 52 54 56 58 60 60 60 60 61 62 62 62 62 62 62 62 61 60 59 59 59 60 61 62 63 63 62 62 63 62 62

ECMWFNIL_250_spd_063.txt.gz
Wind_Speed
47 46 45 45 44 44 43 44 43 45 47 49 49 47 43 42 44 45 43 43 42 42 42 41 41 42 42 41 40 42 45 48 51 53 54 54 51 46 44 45 46 48
49 47 47 47 47 46 46 46 46 47 49 50 48 46 44 41 41 43 41 38 38 38 38 38 38 40 41 39 37 38 40 42 45 50 54 56 57 52 47 44 43 43
50 49 48 49 48 48 48 48 48 49 50 50 47 44 42 38 38 39 37 34 34 33 34 35 37 39 39 36 34 35 37 38 42 46 50 53 55 52 49 45 41 39
52 50 50 50 50 49 50 50 49 49 50 49 47 43 40 36 35 37 35 31 32 31 30 31 34 35 34 32 31 32 33 34 35 37 41 45 50 51 50 46 41 37
53 52 52 52 51 51 51 50 50 49 48 47 44 41 37 33 33 37 35 30 30 31 28 27 31 32 30 29 29 28 29 31 31 31 32 35 42 49 51 49 43 39
55 54 53 53 53 52 52 51 50 49 47 45 42 38 33 31 32 36 33 27 27 30 29 28 32 34 31 30 31 30 30 33 33 32 32 32 35 42 49 51 46 42
56 56 55 54 54 53 53 52 51 49 46 44 41 35 29 28 31 33 31 25 24 28 31 33 37 37 35 33 33 33 33 35 36 35 35 34 35 37 44 50 48 43
57 57 56 55 54 54 54 53 52 49 45 42 39 33 27 28 33 36 33 29 29 32 34 38 43 40 38 37 34 32 33 35 36 36 37 38 36 36 39 45 46 42
58 58 57 56 55 55 55 53 52 50 46 42 37 31 26 30 38 39 36 35 36 37 37 41 45 44 42 40 35 32 34 38 39 39 40 40 38 37 37 40 42 39
60 60 58 56 56 56 54 53 51 50 47 42 36 28 25 33 42 40 37 38 37 37 39 41 43 44 44 42 38 36 37 42 44 42 42 42 38 37 38 39 39 36
61 60 59 57 56 56 55 52 51 49 46 42 34 26 25 37 45 42 39 40 38 36 38 39 40 42 43 42 42 42 43 44 45 42 42 39 34 32 34 36 36 35
62 61 60 58 57 57 55 52 50 48 46 41 32 23 27 40 46 43 39 39 39 37 35 35 37 41 43 43 42 43 44 45 44 43 40 36 33 33 34 35 37 38
62 61 60 59 58 57 54 52 50 48 45 40 30 21 31 43 45 42 39 37 37 38 36 34 35 39 43 44 42 41 43 44 46 46 43 39 39 39 40 40 41 42
63 62 61 60 59 57 54 51 49 47 44 39 28 21 33 44 44 41 40 38 37 39 40 39 38 39 41 43 42 43 42 43 48 52 49 46 47 47 45 44 44 44
64 63 62 61 59 58 55 51 48 46 43 38 27 22 35 44 44 41 41 40 40 42 43 43 43 41 42 44 44 43 42 43 48 53 54 52 52 51 48 46 47 47
66 65 63 62 60 58 55 51 47 44 42 38 27 24 36 45 45 43 43 43 43 44 45 45 44 41 42 44 45 44 42 41 42 47 53 54 54 53 50 48 48 47
67 66 64 63 61 59 56 51 46 43 41 38 29 25 37 47 48 46 46 48 46 45 46 49 46 41 40 43 47 47 43 40 41 43 47 49 52 53 52 50 49 48
68 66 65 64 62 60 57 51 46 42 41 38 31 28 39 50 53 49 49 51 51 47 47 50 46 42 41 44 49 50 46 46 51 50 48 48 49 52 54 52 49 47
67 66 66 65 64 62 59 53 47 42 40 39 33 30 42 54 57 53 51 53 55 51 49 50 46 42 42 44 48 51 50 51 54 51 49 51 51 51 53 53 50 47
68 67 67 66 64 63 60 56 50 43 39 39 36 33 43 57 61 57 53 54 57 55 52 51 50 47 45 44 47 51 51 50 50 48 46 49 51 51 52 53 53 52
69 68 67 66 65 63 62 59 54 46 40 39 39 36 44 59 65 61 57 56 59 59 55 53 55 54 51 49 49 52 52 49 48 47 45 46 49 50 50 52 55 56
70 69 68 67 66 64 63 61 58 51 43 39 41 39 44 59 67 66 62 60 61 62 59 56 57 59 59 56 54 55 57 55 51 47 47 49 51 52 52 54 56 56
71 70 69 68 67 65 64 63 61 56 48 41 41 42 44 57 69 70 67 65 64 64 62 59 58 60 62 63 62 61 62 62 59 54 51 51 53 55 56 57 58 58
72 71 70 69 68 67 67 65 63 60 53 44 42 44 46 54 68 73 71 69 69 68 65 62 60 61 64 66 67 68 67 67 66 64 60 57 56 57 58 59 61 60
73 73 72 71 70 70 69 69 66 62 56 47 43 45 47 52 64 75 76 73 72 71 69 66 64 63 65 67 69 70 71 71 71 71 69 66 64 62 61 61 64 63
75 75 74 73 73 73 73 71 68 63 57 50 45 45 49 53 60 72 79 77 75 74 74 72 69 68 68 69 70 71 71 72 72 73 72 71 70 69 66 65 66 66

ECMWFNIL_250_spd_069.txt.gz
Wind_Speed
54 54 54 55 55 55 55 55 55 55 55 54 53 52 52 51 50 50 50 50 49 50 50 51 51 50 49 49 48 47 46 46 47 46 46 45 43 43 45 47 48 49
54 54 55 55 55 56 55 55 55 55 54 54 53 52 52 52 51 50 51 51 50 51 52 53 53 51 49 49 48 45 43 45 46 45 45 43 41 41 42 43 45 47
54 54 55 55 56 56 55 55 55 55 55 54 53 53 52 52 52 52 51 51 51 52 52 53 54 52 49 48 47 43 40 43 45 45 44 42 40 40 41 41 40 41
53 54 55 56 56 56 56 56 56 56 55 55 54 53 53 52 52 52 52 52 52 52 53 54 54 53 50 48 46 41 38 41 44 45 44 41 39 40 41 41 40 40
52 53 55 56 56 56 56 56 56 56 56 55 55 54 53 53 53 53 53 52 53 53 53 55 55 53 51 49 46 41 37 39 43 44 43 40 36 36 39 41 40 39
52 53 54 56 57 57 57 56 56 56 56 56 55 55 54 53 53 53 53 53 53 53 53 54 55 53 51 49 46 41 37 39 43 43 41 39 36 33 35 38 39 37
51 52 53 55 56 57 57 57 57 56 56 56 55 55 54 54 54 53 53 53 53 53 53 54 54 52 51 49 46 42 37 39 44 45 42 41 39 35 33 35 38 39
51 52 53 53 55 57 58 58 57 57 57 56 56 56 55 55 54 54 54 54 53 52 53 54 53 51 50 49 46 41 38 38 43 46 43 42 41 38 35 36 38 40
52 52 52 53 54 55 57 58 58 57 57 57 56 56 56 55 54 54 54 54 53 52 53 54 52 50 49 48 45 41 38 39 43 44 42 40 40 40 39 39 40 40
52 52 52 52 53 54 55 57 57 57 57 57 56 56 56 55 54 54 54 54 53 52 52 53 52 49 48 46 43 39 39 41 43 43 41 41 40 41 42 42 41 40
53 53 53 53 53 54 54 56 57 57 57 57 56 56 56 56 55 55 54 54 53 51 51 52 51 48 47 45 40 38 41 43 45 44 43 44 43 44 45 45 44 43
55 54 54 54 54 54 54 55 56 57 57 57 57 56 56 56 55 55 54 54 53 51 50 51 50 47 45 45 39 38 43 45 46 46 45 46 45 46 47 47 48 47
56 55 55 54 54 54 55 55 56 56 57 57 57 57 57 57 56 55 54 54 53 51 50 50 50 46 42 43 38 39 46 47 49 49 47 46 46 46 47 48 50 51
57 56 56 55 55 55 55 55 56 56 57 57 57 58 57 57 57 56 55 54 53 51 50 49 49 46 41 40 38 42 49 50 52 52 50 50 49 49 48 48 49 51
58 57 56 56 56 56 56 56 56 56 56 57 57 58 58 58 58 57 57 55 53 51 50 48 48 46 41 39 38 44 53 53 55 56 54 53 54 53 52 51 50 49
58 57 57 57 56 56 56 56 57 57 57 57 57 58 58 58 58 57 57 56 54 52 51 49 47 46 42 38 38 45 55 56 56 58 56 55 56 57 56 55 54 52
59 58 58 58 58 58 57 57 58 58 58 58 58 58 58 58 58 58 57 56 55 53 51 49 47 45 43 39 38 43 56 59 59 60 59 57 57 59 59 59 58 56
60 60 60 59 59 59 59 59 59 59 59 59 59 59 59 59 59 58 58 57 56 54 52 51 48 46 44 41 38 42 54 62 62 63 63 60 59 60 61 61 60 57
61 61 61 61 61 60 60 60 59 60 60 60 61 61 61 60 60 59 59 58 57 56 54 52 50 48 46 44 41 41 51 62 64 64 65 64 62 63 63 63 61 58
63 63 62 62 62 61 61 61 61 61 61 62 62 62 62 62 61 61 60 60 59 57 56 54 52 50 48 47 44 42 48 60 66 66 67 67 65 65 65 65 64 60
63 64 64 64 63 63 63 63 63 63 63 63 64 64 63 63 63 63 62 61 60 59 58 56 54 52 50 48 47 45 47 58 68 68 67 68 68 67 67 67 66 64
64 64 64 65 64 64 64 64 64 64 64 65 65 65 65 65 65 65 64 63 63 61 60 58 56 55 52 50 50 49 48 55 67 71 69 68 69 69 69 69 69 68
65 65 65 65 65 66 66 66 66 67 67 67 67 68 68 67 67 67 66 66 65 64 63 61 59 57 56 53 52 52 51 54 64 72 72 70 70 70 71 72 72 72
66 66 66 67 67 68 68 69 69 70 70 70 70 71 71 71 71 70 70 69 68 67 66 65 63 60 59 57 55 55 55 55 61 71 76 74 72 72 72 73 74 74
67 68 69 69 70 70 71 71 72 72 73 73 73 73 74 74 74 74 73 72 71 70 69 68 66 64 62 60 58 57 58 58 60 68 75 78 76 75 74 75 75 76
69 70 71 72 73 73 74 74 75 75 76 76 76 76 76 76 77 77 76 75 74 73 72 70 69 68 65 63 61 59 60 61 62 66 73 79 80 79 78 77 77 78

ECMWFNIL_250_spd_072.txt.gz
Wind_Speed
50 51 51 52 52 52 53 53 53 54 54 56 56 57 57 56 56 55 55 54 53 53 53 54 54 54 53 53 52 52 51 50 50 49 48 49 50 50 50 49 47 48
52 53 53 53 53 53 54 54 53 53 54 55 56 57 57 58 57 57 56 56 55 54 55 55 55 55 54 54 53 53 52 51 51 51 49 50 51 50 49 48 46 45
54 54 55 55 55 55 55 55 54 54 54 54 55 56 57 58 59 58 58 57 56 56 56 56 56 56 55 55 54 53 53 52 52 52 51 51 51 50 49 47 44 43
56 56 56 56 56 55 55 55 55 55 54 54 54 55 56 57 59 59 59 58 58 57 57 57 57 57 56 55 54 54 53 52 52 52 52 52 52 50 49 46 42 42
59 58 58 58 57 56 56 56 56 55 55 55 55 54 55 56 58 59 59 59 59 58 58 58 58 57 57 56 55 54 53 51 51 52 52 53 53 50 48 44 41 41
62 61 60 59 59 58 57 57 56 56 56 56 56 55 55 55 56 58 59 59 59 59 58 58 58 57 57 56 56 54 53 52 51 53 53 53 53 51 47 42 40 42
64 63 62 60 60 59 58 58 57 57 56 56 56 56 56 55 55 56 58 59 59 59 59 59 58 58 57 56 56 55 53 52 51 53 53 52 52 51 46 41 40 43
65 65 64 62 62 61 59 58 57 57 56 56 56 56 57 56 56 56 57 58 59 59 59 59 58 58 57 57 56 55 54 52 51 52 52 51 51 50 45 39 41 44
66 66 66 64 63 62 60 59 58 57 56 56 56 56 56 57 57 57 57 57 58 59 59 59 59 58 58 57 56 56 55 53 52 52 51 50 50 49 44 39 43 46
66 66 66 65 63 62 61 60 58 57 56 56 56 56 56 56 57 57 57 57 58 58 59 60 59 59 58 57 56 56 55 54 52 51 50 49 49 48 42 38 45 47
64 65 66 65 64 62 60 59 58 57 56 56 57 57 56 56 57 57 57 57 57 58 59 60 60 60 59 58 57 56 56 54 52 51 50 48 47 46 41 39 48 50
64 65 66 66 64 61 58 58 57 57 56 57 57 57 57 57 57 57 57 57 57 57 58 59 60 60 59 59 58 57 56 54 52 51 50 48 46 45 39 41 51 53
66 66 65 65 63 61 59 58 57 57 56 56 57 57 58 58 57 57 57 57 57 57 57 58 59 60 60 59 59 57 56 54 53 51 50 48 46 44 39 43 53 55
66 65 65 64 64 63 62 60 59 57 57 57 57 58 58 58 58 58 57 57 57 57 57 58 58 59 60 60 59 58 56 54 53 51 50 48 45 43 40 45 55 56
65 65 65 65 65 65 64 63 61 59 58 58 58 58 58 58 58 58 58 58 58 58 57 58 58 58 59 59 59 58 56 54 52 52 50 48 45 43 41 46 57 58
65 65 65 66 66 66 65 64 63 61 60 59 58 58 58 58 59 59 58 58 58 58 58 58 58 58 58 58 59 58 56 54 52 51 51 48 46 44 42 46 57 61
66 66 66 66 66 66 65 64 63 62 61 60 59 59 59 59 59 59 59 59 59 59 58 58 58 59 59 58 58 58 57 55 53 51 51 50 47 45 43 46 57 62
65 66 66 66 66 65 65 64 64 63 62 61 60 60 60 60 60 60 60 59 59 59 59 59 59 59 59 59 59 58 57 56 54 53 51 50 49 47 45 47 55 63
64 65 65 66 66 66 65 65 64 63 63 62 62 62 61 61 61 61 61 61 61 61 61 60 60 60 60 60 60 59 58 57 55 54 52 52 51 49 47 47 53 62
64 64 65 66 66 66 66 65 65 64 64 64 64 64 63 63 63 63 63 63 63 63 62 62 62 62 62 62 61 61 60 59 57 56 54 53 52 51 50 49 52 60
64 65 66 67 67 66 66 65 65 65 65 66 66 66 66 65 65 65 65 65 65 65 65 64 64 64 64 63 63 63 62 61 60 58 56 55 55 54 52 51 52 58
65 66 67 67 67 67 67 67 67 67 67 67 67 68 68 68 68 68 67 67 67 68 68 68 67 67 66 66 66 65 64 63 62 61 59 58 57 56 55 54 53 56
66 67 68 68 68 68 68 68 68 68 69 69 69 70 70 71 71 71 71 70 70 71 71 71 71 70 70 69 69 68 67 66 65 63 62 61 59 59 58 57 56 56
68 68 68 69 69 69 69 69 70 70 71 71 71 72 72 73 74 74 74 74 74 74 75 75 75 74 74 73 72 71 71 70 68 66 65 64 63 61 60 60 59 58
68 69 69 69 70 70 71 71 72 72 73 73 74 74 75 76 76 76 77 77 77 77 78 78 78 78 78 77 77 75 74 73 72 70 68 67 66 65 63 63 62 61
69 69 70 70 71 72 72 73 74 75 76 76 76 77 77 78 78 78 78 78 78 78 79 80 80 80 80 80 80 79 78 76 75 74 72 70 69 68 67 66 65 65

ECMWFNIL_250_spd_075.txt.gz
Wind_Speed
54 54 54 53 52 52 52 51 51 52 52 51 52 52 53 54 54 55 54 54 53 53 52 52 53 53 54 55 56 57 57 56 55 54 53 54 54 53 52 51 49 47
53 53 53 52 52 53 55 54 55 55 55 54 53 54 54 55 56 56 56 55 55 54 54 54 54 54 54 55 55 56 56 56 56 55 54 55 55 54 53 53 51 49
53 53 53 54 55 56 57 57 58 58 57 56 55 55 55 56 56 57 57 56 56 56 55 55 55 55 55 55 55 56 56 56 56 55 55 55 55 55 54 53 52 51
55 55 55 56 58 59 59 59 60 60 59 58 58 57 57 56 57 57 57 57 56 56 56 56 56 56 56 56 56 56 56 56 56 56 56 56 56 55 55 54 53 52
57 57 58 59 60 60 60 61 62 62 62 61 60 59 58 58 58 58 58 57 56 56 57 57 57 57 56 56 56 56 56 56 56 56 56 56 56 56 55 54 54 53
59 60 60 61 61 61 62 63 64 64 64 63 62 61 60 59 59 58 58 57 56 56 56 56 57 57 57 57 57 57 56 57 56 56 56 56 57 57 55 54 54 54
61 62 62 63 63 63 64 64 65 65 65 65 64 63 62 61 60 58 58 57 56 56 56 56 57 57 57 57 57 57 57 56 56 56 56 57 57 57 56 55 54 54
64 64 64 64 65 65 65 65 65 66 66 65 65 64 64 63 61 60 60 59 57 56 56 56 57 57 58 57 58 58 57 56 56 56 57 57 57 58 57 56 55 53
65 65 65 65 65 65 65 65 66 66 66 66 66 67 66 65 64 63 61 58 56 56 56 56 57 57 58 58 58 58 58 57 56 56 56 57 57 58 57 57 55 53
65 65 64 64 64 65 65 66 66 67 67 68 68 68 68 67 66 64 60 56 55 55 56 56 57 57 58 58 58 58 58 58 57 56 56 57 57 58 58 57 56 54
65 65 66 66 66 66 66 67 68 69 70 70 69 68 68 67 65 63 60 58 57 57 57 57 57 58 58 58 58 58 58 58 58 57 57 57 57 58 58 57 56 54
67 68 68 69 69 69 69 70 70 71 70 70 69 68 66 65 64 63 62 61 60 59 58 58 58 58 59 59 59 58 58 58 58 58 57 57 57 58 57 57 55 54
70 70 71 72 72 72 72 71 71 70 69 68 67 66 65 65 64 64 64 63 62 61 59 58 58 59 60 60 60 59 59 59 58 58 58 58 58 58 58 57 55 54
71 71 72 72 73 72 71 70 69 68 67 66 66 66 66 65 65 65 65 64 63 61 60 60 60 60 60 61 61 61 60 59 59 59 59 59 59 58 58 57 56 54
70 70 70 70 70 70 69 68 67 66 65 65 66 66 66 66 66 66 65 64 63 63 62 62 61 60 60 61 62 62 62 61 60 60 60 60 60 59 58 57 56 55
68 68 68 67 67 66 65 65 64 64 64 64 65 65 66 66 67 67 66 65 65 64 63 63 62 61 61 61 62 63 63 63 62 61 60 60 61 60 60 59 57 56
68 67 66 65 63 62 62 62 62 63 63 63 64 65 66 67 68 68 68 67 66 65 64 63 62 62 62 62 62 63 63 64 64 64 62 61 61 61 61 60 59 58
68 66 64 62 60 60 60 60 61 62 63 64 65 66 67 67 68 68 68 67 66 65 64 64 63 63 63 63 63 64 64 64 65 65 65 64 63 62 62 62 61 60
65 62 60 59 59 59 60 61 62 64 65 66 66 66 66 67 67 67 68 67 67 66 66 65 65 65 65 65 65 65 66 66 66 67 67 67 66 65 63 63 63 62
62 60 59 59 60 61 62 63 64 65 66 66 66 66 67 67 68 68 68 68 67 67 67 67 67 67 68 68 68 68 68 68 69 69 69 69 68 68 67 65 64 64
61 60 60 60 61 62 63 64 64 65 66 66 67 68 68 68 69 69 69 69 69 69 69 69 70 70 71 71 71 71 71 71 71 71 71 71 70 70 70 68 67 65
60 60 60 61 62 63 63 64 64 66 67 68 69 69 69 69 70 70 71 71 72 72 73 73 73 74 74 75 75 75 75 74 74 74 74 74 73 73 72 71 70 68
59 60 61 61 62 62 63 64 65 67 68 69 70 70 70 71 71 72 73 74 75 75 76 77 77 78 78 78 79 79 79 79 78 77 77 76 76 75 74 73 73 71
60 61 61 62 62 63 64 66 67 68 70 70 71 71 72 73 73 74 75 76 77 78 79 79 80 80 81 81 81 81 81 81 80 80 79 78 77 77 76 75 74 73
60 61 61 62 64 65 67 68 69 70 71 72 73 73 74 75 76 77 78 79 79 80 81 81 81 81 81 81 81 81 81 81 81 81 80 79 78 78 77 76 75 74
60 61 63 64 66 67 69 69 70 71 72 73 74 75 76 77 78 79 80 80 80 80 81 81 80 80 79 79 79 79 79 79 80 80 79 78 78 78 77 76 75 74

ECMWFNIL_250_spd_081.txt.gz
Wind_Speed
58 58 58 58 58 58 58 57 57 56 56 56 56 55 55 55 55 56 56 56 56 56 56 55 55 55 55 56 56 56 56 56 56 57 57 56 55 54 53 53 53 52
58 59 59 59 58 58 58 58 58 58 57 58 58 57 57 57 57 57 57 57 57 58 57 57 57 58 58 58 59 59 59 59 59 59 59 59 58 57 56 56 56 55
59 59 59 59 59 59 59 59 59 59 59 59 59 59 59 59 59 59 59 59 59 59 59 60 60 61 61 61 61 62 62 62 62 61 61 60 60 60 59 58 58 57
60 60 60 60 60 60 60 60 60 60 60 60 60 60 60 61 61 61 61 62 62 62 62 62 63 63 64 64 64 64 64 64 64 63 63 62 62 62 62 61 60 59
61 61 61 61 61 61 61 61 61 61 61 61 61 62 62 62 63 64 64 64 64 64 64 65 65 66 66 66 66 66 66 66 66 66 66 65 65 64 64 64 62 60
62 62 62 62 62 62 62 62 62 62 63 63 63 64 64 65 65 65 66 66 66 66 67 67 67 67 68 68 68 68 68 69 68 68 68 68 68 67 66 65 64 62
60 61 62 62 63 63 63 64 64 64 65 65 65 66 66 66 66 67 67 68 68 68 68 68 68 69 70 70 71 71 70 70 70 69 69 69 68 68 67 65 64 63
58 59 60 61 62 63 63 64 65 65 66 66 66 67 67 67 67 68 68 69 69 69 69 70 70 71 71 72 72 72 72 71 70 69 68 68 67 66 66 64 63 63
58 59 59 60 61 62 62 63 64 65 65 66 67 67 67 68 68 69 69 70 70 70 71 71 71 71 72 72 72 72 72 71 70 69 68 67 66 65 64 64 63 63
58 58 59 60 60 61 62 63 63 64 65 66 67 67 68 68 69 69 70 70 70 70 71 71 71 72 72 72 72 72 72 71 70 68 66 65 65 64 64 64 64 63
58 59 60 60 61 61 62 63 63 64 65 65 66 67 67 68 69 69 69 69 70 70 70 71 72 72 73 73 73 72 72 71 68 66 65 64 64 64 64 64 64 64
59 60 60 61 62 62 63 63 64 64 64 64 65 65 66 67 67 68 68 68 69 70 71 72 73 73 74 74 74 72 70 68 66 65 64 64 64 64 65 65 65 65
59 60 61 61 62 63 63 64 64 64 63 64 64 65 65 66 67 68 69 69 70 71 72 73 73 74 75 74 73 71 68 66 65 64 64 64 65 65 65 66 66 66
60 61 62 62 63 63 63 63 63 64 64 64 65 66 67 68 68 69 70 71 71 72 73 74 74 74 73 72 70 68 66 65 64 64 65 65 66 67 67 67 67 67
62 62 63 63 63 63 63 63 64 64 65 66 67 68 68 69 70 70 71 72 73 73 73 73 72 70 68 67 67 66 66 65 65 65 66 67 68 69 70 70 69 69
63 63 64 64 64 64 64 64 64 65 66 67 67 68 69 69 70 70 71 71 71 71 69 68 67 66 66 66 66 67 67 67 67 68 68 69 70 71 72 72 72 72
64 65 65 65 64 64 64 64 65 65 66 67 67 68 69 69 69 69 68 68 68 67 67 67 68 67 67 68 68 68 69 69 70 71 71 72 72 73 73 74 74 74
65 65 65 65 64 63 63 64 64 65 66 66 67 67 67 67 66 66 66 67 68 68 69 69 69 69 69 69 70 70 70 71 72 73 73 74 75 75 75 76 76 76
65 65 64 63 63 62 63 63 64 64 65 65 65 64 64 64 64 66 68 69 69 69 69 69 69 70 70 71 71 72 73 73 74 75 75 76 77 77 78 78 78 78
64 63 62 61 61 62 62 63 63 63 63 62 62 63 64 65 66 68 69 68 68 68 68 69 70 71 72 73 74 75 76 76 77 78 78 78 79 79 79 80 80 80
61 60 59 60 60 61 61 62 62 62 61 62 63 65 66 67 67 68 68 68 68 68 69 70 72 73 74 75 77 78 78 79 80 80 81 80 80 80 80 80 80 79
58 58 58 59 60 60 61 61 61 61 63 64 66 67 67 68 68 68 68 68 69 70 71 72 74 75 76 77 78 79 80 81 81 81 82 82 81 81 80 79 78 77
58 58 58 59 60 60 61 61 62 63 65 66 67 67 68 68 68 68 69 69 70 71 73 74 75 77 78 79 80 80 81 82 82 82 83 82 81 80 79 77 75 73
57 58 58 59 60 60 61 62 63 64 65 66 67 67 67 67 68 69 69 70 72 73 74 76 77 78 79 80 81 81 82 82 82 82 82 81 80 78 76 74 72 70
57 58 59 59 60 61 62 63 64 65 66 66 67 67 67 68 68 69 70 72 73 75 76 77 78 79 80 81 81 81 82 81 81 80 79 78 76 75 73 71 69 68
58 59 60 61 62 63 64 64 65 66 66 67 67 67 68 68 69 70 72 73 74 76 77 78 79 80 80 81 81 80 80 78 77 75 74 73 72 71 69 68 67 65

ECMWFNIL_250_spd_087.txt.gz
Wind_Speed
68 68 67 68 68 69 70 70 70 70 70 70 70 70 71 72 73 73 71 69 67 65 64 63 62 62 61 62 62 62 62 62 62 63 63 63 63 63 63 63 63 62
69 69 70 71 71 72 72 72 71 70 70 70 70 71 72 72 72 71 69 67 65 63 62 62 61 61 61 61 62 62 62 62 62 63 63 63 64 64 64 64 63 63
73 74 74 74 73 73 72 71 71 70 70 70 70 71 71 71 70 68 67 65 63 63 62 62 61 62 62 62 62 63 63 63 63 63 64 64 65 65 65 65 65 65
76 76 75 74 73 72 71 71 70 70 70 70 71 71 70 69 68 66 65 64 63 62 62 62 62 62 63 63 64 64 65 65 65 65 65 66 66 66 66 66 66 66
74 74 73 73 72 72 71 71 71 71 71 71 71 70 69 68 66 65 64 63 62 62 62 63 63 64 64 65 65 66 66 67 67 67 67 67 67 67 67 67 67 67
72 72 72 72 72 72 72 72 72 72 72 71 71 70 68 66 65 63 63 62 62 62 63 64 64 65 66 67 67 68 68 68 68 68 68 68 68 68 68 68 68 67
72 72 72 72 73 73 73 73 73 72 71 71 69 68 66 64 63 63 63 63 63 64 65 66 67 68 69 69 70 70 70 70 70 70 70 69 69 69 68 68 68 68
73 73 72 73 73 73 73 72 71 71 70 68 67 65 63 63 63 63 63 64 65 66 67 68 69 70 71 72 72 72 72 72 72 71 71 70 70 69 69 68 68 68
71 71 71 71 71 71 71 70 69 68 67 65 64 63 63 63 63 64 65 66 67 68 69 70 71 73 74 74 74 74 73 73 72 72 72 71 71 70 69 69 68 68
69 69 69 69 69 69 68 67 67 66 64 63 63 63 63 64 65 66 67 68 69 70 71 72 74 75 75 75 75 74 74 73 73 72 72 71 71 70 70 70 70 70
67 67 67 67 67 66 66 65 65 64 63 63 63 64 65 65 66 68 69 70 71 72 73 74 76 77 77 76 76 74 74 73 73 72 72 71 71 71 71 71 71 71
65 66 66 66 66 65 65 64 64 63 63 64 65 65 66 67 68 70 71 72 73 73 75 77 78 78 77 77 75 74 74 73 73 72 72 72 72 72 72 72 72 72
65 65 65 65 65 65 64 64 64 64 64 65 66 67 68 69 71 72 73 73 74 75 77 79 79 79 77 76 75 74 73 73 72 72 72 73 73 73 74 74 73 73
64 64 64 64 64 64 64 65 65 65 66 67 68 69 70 71 73 74 74 75 76 78 79 80 80 78 77 75 74 73 72 72 72 73 73 74 74 75 75 75 75 75
63 63 63 64 64 65 65 66 66 67 68 69 70 71 72 73 74 74 75 76 78 79 80 80 79 77 75 74 73 72 72 72 73 74 74 75 76 76 76 76 76 75
62 63 64 64 65 65 66 67 68 68 69 70 71 73 74 74 74 75 76 78 79 80 80 79 77 75 74 73 72 72 73 74 74 75 75 75 76 76 76 76 76 75
62 63 64 64 65 66 67 68 69 70 71 72 73 74 74 74 75 76 78 79 80 80 79 77 75 74 73 72 72 73 74 75 75 75 75 75 75 76 76 76 76 76
63 63 64 65 66 67 69 70 71 72 73 73 73 74 74 75 76 78 79 80 80 79 77 75 73 72 72 72 73 73 73 74 74 74 75 75 75 76 76 76 77 77
63 64 65 66 68 69 70 71 72 73 73 73 74 74 75 77 78 79 79 79 78 77 75 73 72 71 72 72 73 73 73 73 74 75 75 75 76 76 77 77 77 77
64 65 66 68 69 71 72 72 73 73 73 74 75 76 77 78 78 78 78 77 76 74 72 71 71 71 72 72 72 73 73 74 75 75 76 76 77 77 77 76 76 75
65 67 68 70 71 72 72 73 73 74 75 75 76 77 78 78 78 77 76 75 73 71 70 70 71 72 72 72 72 73 74 75 76 77 77 78 77 77 76 75 75 74
67 69 70 71 72 72 73 74 75 75 76 76 77 77 76 76 76 75 74 72 71 70 70 70 71 72 72 73 73 74 75 76 77 78 78 77 77 76 76 75 75 73
69 70 71 72 73 74 75 75 75 75 75 75 75 75 75 75 74 73 71 70 70 70 70 71 71 72 73 74 75 76 77 77 78 78 77 77 77 77 76 74 73 72
70 71 72 73 74 74 74 74 74 73 73 73 73 74 74 73 72 71 70 69 70 70 70 71 72 73 74 75 76 77 77 77 77 77 77 78 77 76 74 72 70 70
70 71 72 72 72 72 72 71 71 72 72 72 73 73 72 71 70 70 70 70 70 71 71 72 73 74 75 76 76 76 76 76 76 77 77 76 74 73 71 70 69 68
69 70 70 70 70 69 69 70 70 71 71 72 72 72 71 70 70 70 70 71 71 72 72 73 74 75 75 75 75 75 75 76 76 75 74 72 71 69 68 68 68 67

ECMWFNIL_250_spd_093.txt.gz
Wind_Speed
51 53 56 59 62 65 68 71 73 76 78 80 81 83 83 84 84 84 84 84 84 83 83 83 82 81 79 78 76 75 74 73 72 71 70 70 69 68 67 67 67 67
54 55 56 58 60 63 66 69 72 74 76 78 79 80 81 81 82 82 82 82 82 81 81 80 78 77 76 75 74 73 73 72 72 71 70 69 69 69 69 69 69 70
59 59 60 61 62 64 65 67 70 72 73 75 76 78 79 79 80 80 80 80 79 78 77 76 75 74 74 73 73 73 72 72 71 71 70 70 70 71 71 71 72 73
62 63 63 64 65 66 67 68 69 71 72 73 75 76 77 77 77 77 77 76 75 75 74 74 73 73 73 73 73 72 72 72 72 72 72 72 73 73 73 74 75 76
65 65 65 65 66 66 67 68 69 70 72 73 73 74 74 74 74 74 73 73 73 72 72 72 72 73 73 72 72 72 72 73 73 74 74 74 75 75 76 77 77 78
66 66 66 66 66 67 68 68 69 70 71 72 72 72 72 72 71 71 71 71 71 71 72 72 72 73 73 73 73 73 73 74 74 75 75 76 77 77 78 79 80 79
66 66 66 67 67 67 68 69 69 70 70 70 70 70 70 70 70 70 70 71 71 72 72 73 73 73 73 73 73 74 74 75 75 76 76 77 78 79 80 81 81 80
65 66 66 67 68 68 69 69 69 69 69 69 69 69 69 69 69 70 71 72 72 73 73 73 73 73 73 73 74 74 75 76 76 77 78 79 80 81 81 81 81 80
67 68 68 68 69 69 69 68 68 68 68 68 69 69 69 70 71 72 73 73 74 74 73 73 73 73 73 74 74 75 76 76 77 79 79 80 81 80 80 80 80 80
69 69 69 69 68 68 67 66 66 66 67 68 69 70 71 72 73 73 73 73 73 73 72 72 72 73 73 74 74 75 76 77 79 79 80 80 80 80 79 79 79 79
68 68 67 66 66 65 65 65 65 67 68 70 71 72 72 73 73 73 72 72 71 71 71 71 72 72 72 74 75 76 77 78 78 79 79 80 79 79 78 78 78 78
67 66 64 64 63 64 64 65 66 68 70 71 72 72 72 72 71 70 70 70 70 70 70 70 71 71 72 74 75 76 77 78 79 79 80 79 78 78 77 77 77 77
64 63 63 63 63 64 65 66 67 69 70 71 71 71 70 69 69 68 69 69 69 69 69 69 70 71 72 74 75 76 77 79 79 79 78 78 77 77 76 76 75 74
62 62 63 63 64 65 66 67 68 69 69 69 69 68 68 67 67 67 68 68 67 67 68 68 69 70 72 73 75 77 78 79 80 79 77 76 76 77 76 75 74 73
63 63 64 64 65 65 66 67 67 67 67 67 67 66 65 65 65 65 66 66 66 66 67 68 69 70 72 74 76 78 79 79 79 77 76 75 76 76 75 74 73 74
63 64 64 65 65 65 65 65 65 65 65 65 64 63 63 63 63 63 64 64 65 66 67 68 69 71 72 75 77 78 79 79 78 76 75 75 76 75 74 74 74 74
64 64 64 64 63 62 62 62 62 62 62 62 61 60 60 61 61 62 63 64 65 67 68 69 70 72 74 76 78 79 79 78 77 76 76 76 75 75 75 75 75 75
63 62 61 60 60 59 59 59 59 59 59 59 59 58 59 60 61 62 63 65 66 68 69 71 72 73 75 77 79 79 79 78 77 76 76 76 75 75 76 76 76 77
59 58 58 57 57 57 57 57 57 58 58 58 58 59 60 61 62 63 65 66 68 69 71 72 73 75 77 78 79 80 80 78 77 76 76 75 75 76 77 77 78 78
56 56 56 55 55 55 56 56 57 58 59 59 60 60 61 62 63 65 67 68 70 71 72 74 74 76 78 80 81 82 80 78 77 76 76 75 76 76 77 77 77 77
55 55 55 55 56 56 56 57 58 59 60 61 61 62 63 64 65 67 68 70 71 73 74 75 76 78 79 81 82 82 79 77 77 76 75 75 76 76 76 76 76 76
55 55 56 56 57 57 58 58 59 60 61 62 63 63 64 65 66 68 70 71 72 74 75 76 77 79 81 83 83 81 78 77 76 75 75 75 75 75 75 75 75 75
56 57 57 58 58 58 59 59 60 61 62 63 64 64 65 66 68 69 71 72 73 74 75 76 78 80 82 84 83 80 78 76 75 74 74 74 74 74 74 74 74 73
57 57 58 58 59 59 60 61 61 62 63 64 64 65 66 68 69 71 72 72 73 74 76 77 79 81 83 84 82 79 76 75 74 74 74 74 73 74 74 74 72 71
58 59 59 60 60 61 61 62 63 63 64 65 66 67 68 69 70 71 72 73 74 75 76 78 79 82 83 82 79 76 75 74 73 73 73 73 73 74 74 72 71 69
60 60 61 62 62 63 63 64 64 64 65 66 67 68 69 70 70 71 72 73 74 75 77 78 80 82 82 79 76 74 73 72 73 73 73 73 74 75 74 72 71 69

ECMWFNIL_250_spd_096.txt.gz
Wind_Speed
46 47 49 50 52 53 54 54 55 57 58 60 61 63 64 66 67 68 70 71 72 73 74 74 74 74 74 73 72 71 71 71 71 71 71 72 72 73 72 72 71 71
49 50 51 52 54 55 56 57 58 59 61 62 63 64 65 66 67 68 69 70 70 71 71 71 71 71 70 70 69 69 69 70 70 71 72 72 73 73 72 71 71 71
51 52 53 55 56 57 58 59 61 62 63 63 64 65 66 67 68 69 69 70 70 70 70 70 69 68 68 68 68 69 69 70 71 72 72 72 72 72 71 71 72 72
54 56 57 59 60 60 61 62 63 64 64 65 66 67 67 68 69 69 70 70 70 69 68 67 66 67 67 68 69 70 70 71 71 71 71 71 71 71 71 72 73 74
59 61 62 63 63 63 63 64 64 65 65 66 67 67 68 68 69 69 69 69 68 67 66 66 66 67 68 69 70 70 70 71 71 70 70 70 70 71 71 72 73 74
63 64 65 65 65 64 65 64 64 65 66 67 67 68 68 68 68 68 68 68 67 66 66 66 67 68 69 69 70 70 70 70 70 69 69 69 70 70 71 72 74 75
66 66 66 65 65 65 64 64 65 66 67 67 68 68 68 68 68 68 67 67 67 66 67 68 69 69 69 69 69 69 69 68 68 68 68 68 69 70 72 73 75 77
67 66 65 65 64 64 64 64 65 66 67 68 68 68 67 67 67 67 67 67 67 68 68 69 69 69 69 68 68 67 67 66 66 67 67 68 69 71 73 75 77 78
65 64 64 64 63 63 64 65 66 67 67 68 67 67 66 66 67 67 68 68 68 68 68 68 68 67 67 66 66 65 64 65 65 67 67 68 70 72 75 77 78 80
62 63 63 62 62 63 66 67 67 67 67 66 66 65 66 66 67 68 68 68 68 67 66 66 65 65 65 64 63 63 63 64 66 67 68 70 71 73 76 78 79 80
62 63 63 62 63 66 68 68 67 67 66 65 65 65 66 67 68 68 68 67 66 64 64 63 63 63 63 62 62 63 64 65 67 68 70 72 73 74 77 79 80 81
63 63 64 65 67 68 69 68 66 65 65 65 65 65 66 67 67 66 65 64 63 62 61 61 62 62 62 62 63 64 65 66 68 70 72 73 74 75 77 79 81 82
62 64 66 68 69 68 67 65 64 64 64 64 65 65 65 65 64 63 62 62 61 60 60 60 61 62 62 63 64 65 67 68 69 71 73 75 76 76 78 80 82 83
65 67 67 68 67 65 63 62 62 62 63 63 63 63 62 61 61 61 61 60 60 60 60 61 62 63 64 65 66 67 69 70 71 73 75 76 77 78 79 81 83 84
67 67 65 65 63 62 61 61 62 62 62 61 60 60 59 59 60 60 60 60 60 60 61 62 63 64 66 67 68 69 70 72 73 74 76 77 78 79 81 83 84 84
64 62 61 60 60 60 61 62 61 61 59 58 58 58 58 59 59 60 61 61 61 62 62 63 65 66 67 69 70 71 72 73 74 76 77 78 80 81 83 85 85 84
59 58 58 59 60 61 61 60 59 58 57 57 57 57 58 59 60 61 61 62 63 63 64 65 66 67 69 70 71 72 73 74 75 77 78 79 81 83 85 86 85 84
58 58 59 60 61 60 58 57 56 56 56 56 57 58 59 60 61 61 62 63 64 65 66 67 68 69 70 71 71 72 74 75 76 77 78 80 82 84 86 86 85 83
58 60 60 60 59 57 56 56 56 56 57 57 58 59 59 60 61 62 63 65 65 66 67 68 69 70 70 71 72 73 74 75 76 78 79 81 83 85 86 85 83 82
59 59 58 57 56 56 56 56 56 57 58 58 59 59 60 61 63 64 65 66 67 68 68 69 69 70 71 72 73 74 75 75 76 78 80 82 84 85 85 83 82 81
57 56 55 55 56 56 56 57 57 58 58 59 59 60 61 63 64 65 66 67 68 68 69 69 69 70 71 72 73 74 75 76 77 79 81 83 85 84 82 81 80 80
55 55 55 56 56 57 57 57 57 58 59 60 60 61 62 63 64 65 66 67 68 68 68 69 69 70 71 72 73 74 75 76 78 80 82 83 83 81 80 79 79 80
55 56 56 56 56 56 57 57 58 58 59 60 61 62 63 64 65 66 67 68 68 69 68 69 69 70 71 72 72 74 75 77 79 81 82 81 80 78 78 78 78 78
55 55 55 55 56 56 57 58 58 59 60 61 62 63 64 65 66 67 68 69 69 69 68 69 69 70 71 72 73 74 76 78 80 81 80 78 77 76 76 77 76 75
54 54 54 55 55 56 57 58 59 60 61 62 63 64 65 65 66 67 69 70 69 69 68 69 70 71 71 72 74 75 77 79 79 78 77 75 75 75 75 75 74 73
53 53 53 55 56 57 59 60 61 61 62 63 64 65 65 66 67 68 70 71 70 69 69 69 70 71 72 73 75 77 78 79 78 76 74 74 74 73 73 73 73 73